Wetterdaten: Donnerstag, 18.07.2019
Datum Zeit Temp. Aussen Temp. o. S. +5cm Feuchte Auss Luftdruck Regen Sonnenschein Regendauer Solar Windben Empfang
18.07.2019 00:00 18,1 C 16,1 C 15,6 C 77 % 1013,3 hPa 0,0 l/m 0 min 0 min 0 W/m 6,4 km/h (2 Bft) 97,87 %
18.07.2019 00:02 18,0 C 15,6 C 15,6 C 77 % 1013,2 hPa 0,0 l/m 0 min 0 min 0 W/m 3,2 km/h (1 Bft) 90,48 %
18.07.2019 00:04 18,0 C 15,6 C 15,6 C 77 % 1013,3 hPa 0,0 l/m 0 min 0 min 0 W/m 0,0 km/h (0 Bft) 97,87 %
18.07.2019 00:08 17,9 C 15,0 C 15,0 C 77 % 1013,3 hPa 0,0 l/m 0 min 0 min 0 W/m 0,0 km/h (0 Bft) 97,85 %
18.07.2019 00:10 17,8 C 15,0 C 15,0 C 77 % 1013,3 hPa 0,0 l/m 0 min 0 min 0 W/m 0,0 km/h (0 Bft) 95,74 %
18.07.2019 00:12 17,8 C 15,0 C 14,4 C 77 % 1013,3 hPa 0,0 l/m 0 min 0 min 0 W/m 0,0 km/h (0 Bft) 95,74 %
18.07.2019 00:14 17,8 C 14,4 C 14,4 C 78 % 1013,3 hPa 0,0 l/m 0 min 0 min 0 W/m 0,0 km/h (0 Bft) 95,74 %
18.07.2019 00:16 17,7 C 14,4 C 14,4 C 78 % 1013,3 hPa 0,0 l/m 0 min 0 min 0 W/m 0,0 km/h (0 Bft) 95,74 %
18.07.2019 00:18 17,7 C 14,4 C 14,4 C 78 % 1013,3 hPa 0,0 l/m 0 min 0 min 0 W/m 0,0 km/h (0 Bft) 95,74 %
18.07.2019 00:20 17,6 C 14,4 C 13,9 C 78 % 1013,3 hPa 0,0 l/m 0 min 0 min 0 W/m 0,0 km/h (0 Bft) 93,48 %
18.07.2019 00:22 17,5 C 14,4 C 13,9 C 78 % 1013,3 hPa 0,0 l/m 0 min 0 min 0 W/m 0,0 km/h (0 Bft) 95,65 %
18.07.2019 00:24 17,4 C 14,4 C 13,9 C 78 % 1013,3 hPa 0,0 l/m 0 min 0 min 0 W/m 0,0 km/h (0 Bft) 93,62 %
18.07.2019 00:26 17,4 C 13,9 C 13,9 C 79 % 1013,4 hPa 0,0 l/m 0 min 0 min 0 W/m 0,0 km/h (0 Bft) 93,62 %
18.07.2019 00:28 17,3 C 13,9 C 13,9 C 79 % 1013,3 hPa 0,0 l/m 0 min 0 min 0 W/m 0,0 km/h (0 Bft) 95,74 %
18.07.2019 00:30 17,2 C 13,9 C 13,9 C 79 % 1013,3 hPa 0,0 l/m 0 min 0 min 0 W/m 0,0 km/h (0 Bft) 95,74 %
18.07.2019 00:32 17,2 C 13,9 C 13,9 C 79 % 1013,3 hPa 0,0 l/m 0 min 0 min 0 W/m 0,0 km/h (0 Bft) 93,48 %
18.07.2019 00:34 17,1 C 13,9 C 13,9 C 79 % 1013,4 hPa 0,0 l/m 0 min 0 min 0 W/m 0,0 km/h (0 Bft) 95,74 %
18.07.2019 00:36 17,0 C 13,9 C 13,9 C 80 % 1013,3 hPa 0,0 l/m 0 min 0 min 0 W/m 0,0 km/h (0 Bft) 93,62 %
18.07.2019 00:38 16,9 C 13,9 C 13,3 C 80 % 1013,3 hPa 0,0 l/m 0 min 0 min 0 W/m 0,0 km/h (0 Bft) 95,74 %
18.07.2019 00:40 16,9 C 13,9 C 13,3 C 80 % 1013,3 hPa 0,0 l/m 0 min 0 min 0 W/m 3,2 km/h (1 Bft) 95,74 %
18.07.2019 00:42 16,8 C 14,4 C 13,3 C 80 % 1013,3 hPa 0,0 l/m 0 min 0 min 0 W/m 3,2 km/h (1 Bft) 95,74 %
18.07.2019 00:44 16,8 C 14,4 C 13,3 C 80 % 1013,3 hPa 0,0 l/m 0 min 0 min 0 W/m 3,2 km/h (1 Bft) 95,65 %
18.07.2019 00:46 16,7 C 14,4 C 13,3 C 81 % 1013,2 hPa 0,0 l/m 0 min 0 min 0 W/m 0,0 km/h (0 Bft) 97,87 %
18.07.2019 00:48 16,6 C 13,9 C 13,3 C 81 % 1013,3 hPa 0,0 l/m 0 min 0 min 0 W/m 0,0 km/h (0 Bft) 100,00 %
18.07.2019 00:50 16,6 C 13,9 C 13,3 C 81 % 1013,2 hPa 0,0 l/m 0 min 0 min 0 W/m 0,0 km/h (0 Bft) 97,87 %
18.07.2019 00:52 16,5 C 13,9 C 13,3 C 81 % 1013,3 hPa 0,0 l/m 0 min 0 min 0 W/m 0,0 km/h (0 Bft) 100,00 %
18.07.2019 00:54 16,5 C 13,9 C 13,3 C 81 % 1013,3 hPa 0,0 l/m 0 min 0 min 0 W/m 0,0 km/h (0 Bft) 97,87 %
18.07.2019 00:56 16,4 C 13,9 C 13,3 C 81 % 1013,3 hPa 0,0 l/m 0 min 0 min 0 W/m 0,0 km/h (0 Bft) 97,83 %
18.07.2019 00:58 16,4 C 13,9 C 13,3 C 81 % 1013,3 hPa 0,0 l/m 0 min 0 min 0 W/m 0,0 km/h (0 Bft) 97,87 %
18.07.2019 01:00 16,3 C 13,9 C 13,3 C 82 % 1013,3 hPa 0,0 l/m 0 min 0 min 0 W/m 0,0 km/h (0 Bft) 100,00 %
18.07.2019 01:02 16,3 C 13,3 C 13,3 C 82 % 1013,3 hPa 0,0 l/m 0 min 0 min 0 W/m 0,0 km/h (0 Bft) 100,00 %
18.07.2019 01:04 16,2 C 13,3 C 12,8 C 82 % 1013,3 hPa 0,0 l/m 0 min 0 min 0 W/m 0,0 km/h (0 Bft) 95,74 %
18.07.2019 01:06 16,2 C 13,3 C 12,8 C 82 % 1013,3 hPa 0,0 l/m 0 min 0 min 0 W/m 0,0 km/h (0 Bft) 97,83 %
18.07.2019 01:08 16,1 C 13,3 C 12,8 C 82 % 1013,3 hPa 0,0 l/m 0 min 0 min 0 W/m 0,0 km/h (0 Bft) 100,00 %
18.07.2019 01:10 16,1 C 13,3 C 12,8 C 82 % 1013,2 hPa 0,0 l/m 0 min 0 min 0 W/m 0,0 km/h (0 Bft) 100,00 %
18.07.2019 01:12 16,0 C 13,3 C 12,8 C 83 % 1013,2 hPa 0,0 l/m 0 min 0 min 0 W/m 0,0 km/h (0 Bft) 100,00 %
18.07.2019 01:14 15,9 C 13,3 C 12,8 C 83 % 1013,2 hPa 0,0 l/m 0 min 0 min 0 W/m 0,0 km/h (0 Bft) 100,00 %
18.07.2019 01:16 15,9 C 13,3 C 12,8 C 83 % 1013,3 hPa 0,0 l/m 0 min 0 min 0 W/m 3,2 km/h (1 Bft) 100,00 %
18.07.2019 01:18 15,8 C 13,3 C 12,8 C 83 % 1013,3 hPa 0,0 l/m 0 min 0 min 0 W/m 0,0 km/h (0 Bft) 100,00 %
18.07.2019 01:20 15,8 C 12,8 C 12,8 C 83 % 1013,2 hPa 0,0 l/m 0 min 0 min 0 W/m 0,0 km/h (0 Bft) 97,87 %
18.07.2019 01:22 15,7 C 12,8 C 12,8 C 83 % 1013,2 hPa 0,0 l/m 0 min 0 min 0 W/m 0,0 km/h (0 Bft) 97,87 %
18.07.2019 01:24 15,7 C 12,8 C 12,8 C 83 % 1013,2 hPa 0,0 l/m 0 min 0 min 0 W/m 0,0 km/h (0 Bft) 100,00 %
18.07.2019 01:26 15,6 C 12,8 C 12,8 C 84 % 1013,2 hPa 0,0 l/m 0 min 0 min 0 W/m 0,0 km/h (0 Bft) 97,87 %
18.07.2019 01:28 15,6 C 12,8 C 12,8 C 84 % 1013,1 hPa 0,0 l/m 0 min 0 min 0 W/m 0,0 km/h (0 Bft) 97,87 %
18.07.2019 01:30 15,6 C 12,8 C 12,8 C 84 % 1013,1 hPa 0,0 l/m 0 min 0 min 0 W/m 0,0 km/h (0 Bft) 95,65 %
18.07.2019 01:32 15,5 C 12,8 C 12,8 C 84 % 1013,1 hPa 0,0 l/m 0 min 0 min 0 W/m 0,0 km/h (0 Bft) 97,87 %
18.07.2019 01:34 15,4 C 12,8 C 12,8 C 84 % 1013,2 hPa 0,0 l/m 0 min 0 min 0 W/m 0,0 km/h (0 Bft) 97,87 %
18.07.2019 01:36 15,4 C 12,8 C 12,2 C 84 % 1013,2 hPa 0,0 l/m 0 min 0 min 0 W/m 0,0 km/h (0 Bft) 97,87 %
18.07.2019 01:38 15,3 C 12,8 C 12,2 C 84 % 1013,2 hPa 0,0 l/m 0 min 0 min 0 W/m 0,0 km/h (0 Bft) 97,87 %
18.07.2019 01:40 15,3 C 12,8 C 12,2 C 85 % 1013,2 hPa 0,0 l/m 0 min 0 min 0 W/m 0,0 km/h (0 Bft) 97,87 %
18.07.2019 01:42 15,2 C 12,8 C 12,2 C 85 % 1013,2 hPa 0,0 l/m 0 min 0 min 0 W/m 0,0 km/h (0 Bft) 97,83 %
18.07.2019 01:44 15,2 C 12,8 C 12,2 C 85 % 1013,1 hPa 0,0 l/m 0 min 0 min 0 W/m 0,0 km/h (0 Bft) 95,74 %
18.07.2019 01:46 15,2 C 12,8 C 12,2 C 85 % 1013,2 hPa 0,0 l/m 0 min 0 min 0 W/m 0,0 km/h (0 Bft) 97,87 %
18.07.2019 01:48 15,1 C 12,8 C 12,2 C 85 % 1013,2 hPa 0,0 l/m 0 min 0 min 0 W/m 0,0 km/h (0 Bft) 95,74 %
18.07.2019 01:50 15,1 C 12,8 C 12,2 C 85 % 1013,2 hPa 0,0 l/m 0 min 0 min 0 W/m 0,0 km/h (0 Bft) 97,87 %
18.07.2019 01:52 15,0 C 12,8 C 12,2 C 85 % 1013,2 hPa 0,0 l/m 0 min 0 min 0 W/m 3,2 km/h (1 Bft) 97,87 %
18.07.2019 01:54 15,0 C 12,8 C 12,2 C 85 % 1013,2 hPa 0,0 l/m 0 min 0 min 0 W/m 0,0 km/h (0 Bft) 95,65 %
18.07.2019 01:56 14,9 C 12,8 C 12,2 C 85 % 1013,2 hPa 0,0 l/m 0 min 0 min 0 W/m 0,0 km/h (0 Bft) 97,87 %
18.07.2019 01:58 14,9 C 12,8 C 12,2 C 85 % 1013,2 hPa 0,0 l/m 0 min 0 min 0 W/m 0,0 km/h (0 Bft) 97,87 %
18.07.2019 02:00 14,8 C 12,8 C 12,2 C 85 % 1013,2 hPa 0,0 l/m 0 min 0 min 0 W/m 0,0 km/h (0 Bft) 97,87 %
18.07.2019 02:02 14,8 C 12,8 C 12,2 C 85 % 1013,2 hPa 0,0 l/m 0 min 0 min 0 W/m 0,0 km/h (0 Bft) 97,87 %
18.07.2019 02:04 14,8 C 12,8 C 12,2 C 85 % 1013,2 hPa 0,0 l/m 0 min 0 min 0 W/m 3,2 km/h (1 Bft) 95,74 %
18.07.2019 02:06 14,7 C 12,8 C 12,2 C 85 % 1013,2 hPa 0,0 l/m 0 min 0 min 0 W/m 0,0 km/h (0 Bft) 97,83 %
18.07.2019 02:08 14,7 C 12,8 C 12,2 C 85 % 1013,3 hPa 0,0 l/m 0 min 0 min 0 W/m 0,0 km/h (0 Bft) 97,87 %
18.07.2019 02:10 14,7 C 12,8 C 12,2 C 85 % 1013,1 hPa 0,0 l/m 0 min 0 min 0 W/m 3,2 km/h (1 Bft) 93,62 %
18.07.2019 02:12 14,6 C 13,3 C 12,2 C 86 % 1013,1 hPa 0,0 l/m 0 min 0 min 0 W/m 0,0 km/h (0 Bft) 95,74 %
18.07.2019 02:14 14,6 C 13,3 C 12,2 C 86 % 1013,2 hPa 0,0 l/m 0 min 0 min 0 W/m 0,0 km/h (0 Bft) 97,87 %
18.07.2019 02:16 14,6 C 13,9 C 12,8 C 86 % 1013,1 hPa 0,0 l/m 0 min 0 min 0 W/m 0,0 km/h (0 Bft) 97,83 %
18.07.2019 02:18 14,6 C 13,9 C 12,8 C 86 % 1013,1 hPa 0,0 l/m 0 min 0 min 0 W/m 3,2 km/h (1 Bft) 97,87 %
18.07.2019 02:20 14,6 C 13,9 C 12,8 C 87 % 1013,1 hPa 0,0 l/m 0 min 0 min 0 W/m 3,2 km/h (1 Bft) 95,74 %
18.07.2019 02:22 14,6 C 13,9 C 12,8 C 87 % 1013,1 hPa 0,0 l/m 0 min 0 min 0 W/m 6,4 km/h (2 Bft) 97,87 %
18.07.2019 02:24 14,6 C 13,9 C 13,3 C 87 % 1013,1 hPa 0,0 l/m 0 min 0 min 0 W/m 6,4 km/h (2 Bft) 95,74 %
18.07.2019 02:26 14,6 C 13,9 C 13,3 C 88 % 1013,0 hPa 0,0 l/m 0 min 0 min 0 W/m 3,2 km/h (1 Bft) 95,74 %
18.07.2019 02:28 14,6 C 13,9 C 13,3 C 88 % 1013,0 hPa 0,0 l/m 0 min 0 min 0 W/m 6,4 km/h (2 Bft) 95,65 %
18.07.2019 02:30 14,6 C 14,4 C 13,9 C 88 % 1013,0 hPa 0,0 l/m 0 min 0 min 0 W/m 6,4 km/h (2 Bft) 97,87 %
18.07.2019 02:32 14,6 C 14,4 C 13,9 C 88 % 1013,0 hPa 0,0 l/m 0 min 0 min 0 W/m 3,2 km/h (1 Bft) 97,87 %
18.07.2019 02:34 14,7 C 14,4 C 13,9 C 89 % 1013,0 hPa 0,0 l/m 0 min 0 min 0 W/m 9,7 km/h (2 Bft) 97,87 %
18.07.2019 02:36 14,7 C 14,4 C 13,9 C 89 % 1013,0 hPa 0,0 l/m 0 min 0 min 0 W/m 6,4 km/h (2 Bft) 97,87 %
18.07.2019 02:38 14,7 C 14,4 C 13,9 C 89 % 1012,9 hPa 0,0 l/m 0 min 0 min 0 W/m 6,4 km/h (2 Bft) 97,87 %
18.07.2019 02:40 14,7 C 14,4 C 13,9 C 89 % 1012,9 hPa 0,0 l/m 0 min 0 min 0 W/m 6,4 km/h (2 Bft) 95,65 %
18.07.2019 02:42 14,7 C 14,4 C 13,9 C 89 % 1013,0 hPa 0,0 l/m 0 min 0 min 0 W/m 6,4 km/h (2 Bft) 97,87 %
18.07.2019 02:44 14,7 C 14,4 C 13,9 C 89 % 1013,0 hPa 0,0 l/m 0 min 0 min 0 W/m 6,4 km/h (2 Bft) 95,74 %
18.07.2019 02:46 14,7 C 14,4 C 13,9 C 89 % 1013,0 hPa 0,0 l/m 0 min 0 min 0 W/m 6,4 km/h (2 Bft) 97,87 %
18.07.2019 02:48 14,8 C 14,4 C 13,9 C 89 % 1013,0 hPa 0,0 l/m 0 min 0 min 0 W/m 6,4 km/h (2 Bft) 97,87 %
18.07.2019 02:50 14,8 C 14,4 C 13,9 C 89 % 1013,0 hPa 0,0 l/m 0 min 0 min 0 W/m 6,4 km/h (2 Bft) 97,87 %
18.07.2019 02:52 14,8 C 14,4 C 13,9 C 89 % 1013,0 hPa 0,0 l/m 0 min 0 min 0 W/m 6,4 km/h (2 Bft) 93,48 %
18.07.2019 02:54 14,8 C 14,4 C 13,9 C 89 % 1013,0 hPa 0,0 l/m 0 min 0 min 0 W/m 6,4 km/h (2 Bft) 97,87 %
18.07.2019 02:56 14,8 C 14,4 C 13,9 C 89 % 1012,9 hPa 0,0 l/m 0 min 0 min 0 W/m 6,4 km/h (2 Bft) 97,87 %
18.07.2019 02:58 14,8 C 14,4 C 13,9 C 89 % 1013,0 hPa 0,0 l/m 0 min 0 min 0 W/m 3,2 km/h (1 Bft) 97,87 %
18.07.2019 03:00 14,8 C 14,4 C 13,9 C 89 % 1012,9 hPa 0,0 l/m 0 min 0 min 0 W/m 6,4 km/h (2 Bft) 100,00 %
18.07.2019 03:02 14,8 C 14,4 C 13,9 C 89 % 1012,9 hPa 0,0 l/m 0 min 0 min 0 W/m 6,4 km/h (2 Bft) 100,00 %
18.07.2019 03:04 14,8 C 14,4 C 13,9 C 89 % 1013,0 hPa 0,0 l/m 0 min 0 min 0 W/m 6,4 km/h (2 Bft) 100,00 %
18.07.2019 03:06 14,8 C 14,4 C 13,9 C 89 % 1013,0 hPa 0,0 l/m 0 min 0 min 0 W/m 3,2 km/h (1 Bft) 100,00 %
18.07.2019 03:08 14,8 C 14,4 C 13,9 C 89 % 1012,9 hPa 0,0 l/m 0 min 0 min 0 W/m 6,4 km/h (2 Bft) 97,87 %
18.07.2019 03:10 14,9 C 14,4 C 13,9 C 89 % 1012,9 hPa 0,0 l/m 0 min 0 min 0 W/m 6,4 km/h (2 Bft) 100,00 %
18.07.2019 03:12 14,9 C 13,9 C 13,9 C 89 % 1012,9 hPa 0,0 l/m 0 min 0 min 0 W/m 3,2 km/h (1 Bft) 100,00 %
18.07.2019 03:14 14,9 C 13,9 C 13,9 C 89 % 1012,9 hPa 0,0 l/m 0 min 0 min 0 W/m 6,4 km/h (2 Bft) 97,83 %
18.07.2019 03:16 14,9 C 13,9 C 13,9 C 89 % 1012,9 hPa 0,0 l/m 0 min 0 min 0 W/m 3,2 km/h (1 Bft) 100,00 %
18.07.2019 03:18 14,9 C 13,9 C 13,9 C 89 % 1012,9 hPa 0,0 l/m 0 min 0 min 0 W/m 3,2 km/h (1 Bft) 100,00 %
18.07.2019 03:20 14,9 C 13,9 C 13,9 C 89 % 1012,9 hPa 0,0 l/m 0 min 0 min 0 W/m 6,4 km/h (2 Bft) 100,00 %
18.07.2019 03:22 14,9 C 13,9 C 13,9 C 89 % 1013,0 hPa 0,0 l/m 0 min 0 min 0 W/m 6,4 km/h (2 Bft) 100,00 %
18.07.2019 03:24 14,9 C 13,9 C 13,9 C 89 % 1012,9 hPa 0,0 l/m 0 min 0 min 0 W/m 6,4 km/h (2 Bft) 95,74 %
18.07.2019 03:26 14,9 C 13,9 C 13,9 C 89 % 1012,9 hPa 0,0 l/m 0 min 0 min 0 W/m 6,4 km/h (2 Bft) 100,00 %
18.07.2019 03:28 14,9 C 13,9 C 13,9 C 89 % 1012,8 hPa 0,0 l/m 0 min 0 min 0 W/m 9,7 km/h (2 Bft) 97,87 %
18.07.2019 03:30 14,9 C 13,9 C 13,9 C 89 % 1012,9 hPa 0,0 l/m 0 min 0 min 0 W/m 6,4 km/h (2 Bft) 100,00 %
18.07.2019 03:32 14,9 C 13,9 C 13,9 C 89 % 1012,8 hPa 0,0 l/m 0 min 0 min 0 W/m 9,7 km/h (2 Bft) 100,00 %
18.07.2019 03:34 14,9 C 13,9 C 13,9 C 89 % 1012,8 hPa 0,0 l/m 0 min 0 min 0 W/m 6,4 km/h (2 Bft) 100,00 %
18.07.2019 03:36 14,9 C 13,9 C 13,9 C 89 % 1012,8 hPa 0,0 l/m 0 min 0 min 0 W/m 3,2 km/h (1 Bft) 100,00 %
18.07.2019 03:38 14,9 C 13,9 C 13,9 C 89 % 1012,8 hPa 0,0 l/m 0 min 0 min 0 W/m 3,2 km/h (1 Bft) 100,00 %
18.07.2019 03:40 14,9 C 13,9 C 13,9 C 89 % 1012,7 hPa 0,0 l/m 0 min 0 min 0 W/m 3,2 km/h (1 Bft) 100,00 %
18.07.2019 03:42 14,9 C 13,9 C 13,9 C 89 % 1012,7 hPa 0,0 l/m 0 min 0 min 0 W/m 12,9 km/h (3 Bft) 100,00 %
18.07.2019 03:44 14,9 C 13,9 C 13,9 C 89 % 1012,6 hPa 0,0 l/m 0 min 0 min 0 W/m 9,7 km/h (2 Bft) 97,87 %
18.07.2019 03:46 14,9 C 13,9 C 13,9 C 89 % 1012,7 hPa 0,0 l/m 0 min 0 min 0 W/m 3,2 km/h (1 Bft) 97,87 %
18.07.2019 03:48 14,9 C 13,9 C 13,9 C 89 % 1012,7 hPa 0,0 l/m 0 min 0 min 0 W/m 3,2 km/h (1 Bft) 97,87 %
18.07.2019 03:50 14,9 C 13,9 C 13,9 C 89 % 1012,6 hPa 0,0 l/m 0 min 0 min 0 W/m 3,2 km/h (1 Bft) 97,83 %
18.07.2019 03:52 14,9 C 13,9 C 13,9 C 89 % 1012,6 hPa 0,0 l/m 0 min 0 min 0 W/m 3,2 km/h (1 Bft) 95,74 %
18.07.2019 03:54 14,9 C 13,9 C 13,9 C 89 % 1012,6 hPa 0,0 l/m 0 min 0 min 0 W/m 6,4 km/h (2 Bft) 97,87 %
18.07.2019 03:56 14,9 C 13,9 C 13,9 C 89 % 1012,6 hPa 0,0 l/m 0 min 0 min 0 W/m 3,2 km/h (1 Bft) 95,74 %
18.07.2019 03:58 14,9 C 13,9 C 13,9 C 89 % 1012,6 hPa 0,0 l/m 0 min 0 min 0 W/m 0,0 km/h (0 Bft) 97,87 %
18.07.2019 04:00 14,9 C 13,3 C 13,3 C 89 % 1012,6 hPa 0,0 l/m 0 min 0 min 0 W/m 0,0 km/h (0 Bft) 97,87 %
18.07.2019 04:02 14,9 C 13,9 C 13,3 C 89 % 1012,5 hPa 0,0 l/m 0 min 0 min 0 W/m 0,0 km/h (0 Bft) 100,00 %
18.07.2019 04:04 14,9 C 13,9 C 13,3 C 89 % 1012,5 hPa 0,0 l/m 0 min 0 min 0 W/m 3,2 km/h (1 Bft) 97,87 %
18.07.2019 04:06 14,9 C 13,9 C 13,3 C 89 % 1012,6 hPa 0,0 l/m 0 min 0 min 0 W/m 6,4 km/h (2 Bft) 93,62 %
18.07.2019 04:08 14,8 C 13,9 C 13,9 C 89 % 1012,5 hPa 0,0 l/m 0 min 0 min 0 W/m 6,4 km/h (2 Bft) 97,87 %
18.07.2019 04:10 14,8 C 13,9 C 13,9 C 89 % 1012,6 hPa 0,0 l/m 0 min 0 min 0 W/m 6,4 km/h (2 Bft) 97,87 %
18.07.2019 04:12 14,8 C 13,9 C 13,9 C 89 % 1012,6 hPa 0,0 l/m 0 min 0 min 0 W/m 6,4 km/h (2 Bft) 97,87 %
18.07.2019 04:14 14,8 C 13,9 C 13,9 C 89 % 1012,6 hPa 0,0 l/m 0 min 0 min 0 W/m 6,4 km/h (2 Bft) 97,83 %
18.07.2019 04:16 14,8 C 13,9 C 13,9 C 89 % 1012,6 hPa 0,0 l/m 0 min 0 min 0 W/m 6,4 km/h (2 Bft) 97,87 %
18.07.2019 04:18 14,8 C 13,9 C 13,9 C 89 % 1012,6 hPa 0,0 l/m 0 min 0 min 0 W/m 6,4 km/h (2 Bft) 97,87 %
18.07.2019 04:20 14,8 C 13,9 C 13,9 C 89 % 1012,6 hPa 0,0 l/m 0 min 0 min 0 W/m 9,7 km/h (2 Bft) 97,87 %
18.07.2019 04:22 14,8 C 13,9 C 13,9 C 90 % 1012,6 hPa 0,0 l/m 0 min 0 min 0 W/m 6,4 km/h (2 Bft) 97,87 %
18.07.2019 04:24 14,8 C 13,9 C 13,9 C 90 % 1012,6 hPa 0,0 l/m 0 min 0 min 0 W/m 6,4 km/h (2 Bft) 95,74 %
18.07.2019 04:26 14,8 C 13,9 C 13,9 C 90 % 1012,5 hPa 0,0 l/m 0 min 0 min 0 W/m 6,4 km/h (2 Bft) 95,65 %
18.07.2019 04:28 14,8 C 13,9 C 13,9 C 90 % 1012,6 hPa 0,0 l/m 0 min 0 min 0 W/m 9,7 km/h (2 Bft) 95,74 %
18.07.2019 04:30 14,8 C 13,9 C 13,9 C 90 % 1012,6 hPa 0,0 l/m 0 min 0 min 0 W/m 6,4 km/h (2 Bft) 93,62 %
18.07.2019 04:32 14,8 C 13,9 C 13,9 C 90 % 1012,6 hPa 0,0 l/m 0 min 0 min 0 W/m 6,4 km/h (2 Bft) 93,62 %
18.07.2019 04:34 14,8 C 13,9 C 13,9 C 90 % 1012,6 hPa 0,0 l/m 0 min 0 min 0 W/m 6,4 km/h (2 Bft) 95,74 %
18.07.2019 04:36 14,8 C 13,9 C 13,9 C 90 % 1012,6 hPa 0,0 l/m 0 min 0 min 0 W/m 6,4 km/h (2 Bft) 93,48 %
18.07.2019 04:38 14,8 C 13,9 C 13,9 C 90 % 1012,6 hPa 0,0 l/m 0 min 0 min 0 W/m 6,4 km/h (2 Bft) 93,62 %
18.07.2019 04:40 14,8 C 13,9 C 13,9 C 90 % 1012,6 hPa 0,0 l/m 0 min 0 min 0 W/m 6,4 km/h (2 Bft) 91,49 %
18.07.2019 04:42 14,8 C 13,9 C 13,9 C 90 % 1012,6 hPa 0,0 l/m 0 min 0 min 0 W/m 6,4 km/h (2 Bft) 95,74 %
18.07.2019 04:44 14,8 C 13,9 C 13,9 C 90 % 1012,6 hPa 0,0 l/m 0 min 0 min 0 W/m 6,4 km/h (2 Bft) 95,74 %
18.07.2019 04:46 14,8 C 13,9 C 13,9 C 90 % 1012,6 hPa 0,0 l/m 0 min 0 min 0 W/m 6,4 km/h (2 Bft) 93,62 %
18.07.2019 04:48 14,8 C 13,9 C 13,9 C 90 % 1012,6 hPa 0,0 l/m 0 min 0 min 0 W/m 6,4 km/h (2 Bft) 93,48 %
18.07.2019 04:50 14,8 C 13,9 C 13,9 C 90 % 1012,6 hPa 0,0 l/m 0 min 0 min 0 W/m 6,4 km/h (2 Bft) 95,74 %
18.07.2019 04:52 14,8 C 13,9 C 13,9 C 90 % 1012,5 hPa 0,0 l/m 0 min 0 min 0 W/m 6,4 km/h (2 Bft) 95,74 %
18.07.2019 04:54 14,8 C 13,9 C 13,9 C 90 % 1012,5 hPa 0,0 l/m 0 min 0 min 0 W/m 6,4 km/h (2 Bft) 93,62 %
18.07.2019 04:56 14,8 C 13,9 C 13,9 C 90 % 1012,5 hPa 0,0 l/m 0 min 0 min 0 W/m 6,4 km/h (2 Bft) 93,62 %
18.07.2019 04:58 14,8 C 13,9 C 13,9 C 90 % 1012,4 hPa 0,0 l/m 0 min 0 min 0 W/m 6,4 km/h (2 Bft) 93,62 %
18.07.2019 05:00 14,8 C 13,9 C 13,9 C 90 % 1012,4 hPa 0,0 l/m 0 min 0 min 0 W/m 9,7 km/h (2 Bft) 95,65 %
18.07.2019 05:02 14,8 C 13,9 C 13,9 C 90 % 1012,4 hPa 0,0 l/m 0 min 0 min 0 W/m 6,4 km/h (2 Bft) 97,87 %
18.07.2019 05:04 14,8 C 13,9 C 13,9 C 90 % 1012,3 hPa 0,0 l/m 0 min 0 min 0 W/m 12,9 km/h (3 Bft) 93,62 %
18.07.2019 05:06 14,8 C 13,9 C 13,9 C 90 % 1012,3 hPa 0,0 l/m 0 min 0 min 0 W/m 6,4 km/h (2 Bft) 93,62 %
18.07.2019 05:08 14,8 C 13,9 C 13,9 C 90 % 1012,2 hPa 0,0 l/m 0 min 0 min 0 W/m 9,7 km/h (2 Bft) 95,74 %
18.07.2019 05:10 14,7 C 13,9 C 13,9 C 90 % 1012,2 hPa 0,0 l/m 0 min 0 min 0 W/m 12,9 km/h (3 Bft) 95,74 %
18.07.2019 05:12 14,7 C 13,9 C 13,3 C 90 % 1012,2 hPa 0,0 l/m 0 min 0 min 0 W/m 6,4 km/h (2 Bft) 97,83 %
18.07.2019 05:14 14,7 C 13,9 C 13,3 C 90 % 1012,2 hPa 0,0 l/m 0 min 0 min 0 W/m 9,7 km/h (2 Bft) 97,87 %
18.07.2019 05:16 14,7 C 13,9 C 13,3 C 90 % 1012,1 hPa 0,0 l/m 0 min 0 min 0 W/m 9,7 km/h (2 Bft) 97,87 %
18.07.2019 05:18 14,7 C 13,9 C 13,3 C 91 % 1012,1 hPa 0,0 l/m 0 min 0 min 0 W/m 9,7 km/h (2 Bft) 97,87 %
18.07.2019 05:20 14,7 C 13,9 C 13,3 C 91 % 1012,0 hPa 0,0 l/m 0 min 0 min 0 W/m 6,4 km/h (2 Bft) 97,87 %
18.07.2019 05:22 14,7 C 13,9 C 13,3 C 91 % 1012,0 hPa 0,0 l/m 0 min 0 min 0 W/m 6,4 km/h (2 Bft) 97,87 %
18.07.2019 05:24 14,7 C 13,9 C 13,9 C 91 % 1012,0 hPa 0,0 l/m 0 min 0 min 0 W/m 9,7 km/h (2 Bft) 97,83 %
18.07.2019 05:26 14,7 C 13,9 C 13,9 C 91 % 1012,0 hPa 0,0 l/m 0 min 0 min 0 W/m 6,4 km/h (2 Bft) 93,62 %
18.07.2019 05:28 14,7 C 13,9 C 13,3 C 91 % 1012,0 hPa 0,0 l/m 0 min 0 min 0 W/m 0,0 km/h (0 Bft) 97,87 %
18.07.2019 05:30 14,7 C 13,9 C 13,3 C 91 % 1012,0 hPa 0,0 l/m 0 min 0 min 0 W/m 3,2 km/h (1 Bft) 97,87 %
18.07.2019 05:32 14,7 C 13,3 C 13,3 C 91 % 1012,0 hPa 0,0 l/m 0 min 0 min 0 W/m 3,2 km/h (1 Bft) 97,87 %
18.07.2019 05:34 14,7 C 13,3 C 13,3 C 91 % 1011,9 hPa 0,0 l/m 0 min 0 min 0 W/m 3,2 km/h (1 Bft) 95,74 %
18.07.2019 05:36 14,7 C 13,3 C 13,3 C 91 % 1011,9 hPa 0,0 l/m 0 min 0 min 0 W/m 6,4 km/h (2 Bft) 95,65 %
18.07.2019 05:38 14,7 C 13,9 C 13,3 C 91 % 1012,0 hPa 0,0 l/m 0 min 0 min 0 W/m 6,4 km/h (2 Bft) 97,87 %
18.07.2019 05:40 14,7 C 13,9 C 13,3 C 91 % 1012,0 hPa 0,0 l/m 0 min 0 min 0 W/m 6,4 km/h (2 Bft) 100,00 %
18.07.2019 05:42 14,7 C 13,9 C 13,3 C 91 % 1012,0 hPa 0,0 l/m 0 min 0 min 0 W/m 6,4 km/h (2 Bft) 97,87 %
18.07.2019 05:44 14,7 C 13,9 C 13,3 C 91 % 1012,1 hPa 0,0 l/m 0 min 0 min 0 W/m 3,2 km/h (1 Bft) 100,00 %
18.07.2019 05:46 14,7 C 13,9 C 13,3 C 91 % 1012,1 hPa 0,0 l/m 0 min 0 min 0 W/m 6,4 km/h (2 Bft) 100,00 %
18.07.2019 05:48 14,7 C 13,9 C 13,3 C 91 % 1012,1 hPa 0,0 l/m 0 min 0 min 4 W/m 6,4 km/h (2 Bft) 100,00 %
18.07.2019 05:50 14,7 C 13,9 C 13,9 C 91 % 1012,1 hPa 0,0 l/m 0 min 0 min 5 W/m 6,4 km/h (2 Bft) 100,00 %
18.07.2019 05:52 14,7 C 13,9 C 13,9 C 91 % 1012,1 hPa 0,0 l/m 0 min 0 min 5 W/m 9,7 km/h (2 Bft) 97,87 %
18.07.2019 05:54 14,7 C 13,9 C 13,9 C 91 % 1012,0 hPa 0,0 l/m 0 min 0 min 7 W/m 6,4 km/h (2 Bft) 100,00 %
18.07.2019 05:56 14,7 C 13,9 C 13,9 C 91 % 1012,0 hPa 0,0 l/m 0 min 0 min 7 W/m 6,4 km/h (2 Bft) 100,00 %
18.07.2019 05:58 14,7 C 13,9 C 13,9 C 91 % 1012,0 hPa 0,0 l/m 0 min 0 min 7 W/m 6,4 km/h (2 Bft) 100,00 %
18.07.2019 06:00 14,7 C 13,9 C 13,9 C 91 % 1012,0 hPa 0,0 l/m 0 min 0 min 8 W/m 6,4 km/h (2 Bft) 100,00 %
18.07.2019 06:02 14,7 C 13,9 C 13,9 C 91 % 1012,1 hPa 0,0 l/m 0 min 0 min 9 W/m 6,4 km/h (2 Bft) 100,00 %
18.07.2019 06:04 14,7 C 13,9 C 13,9 C 91 % 1012,0 hPa 0,0 l/m 0 min 0 min 9 W/m 6,4 km/h (2 Bft) 100,00 %
18.07.2019 06:08 14,7 C 13,9 C 13,9 C 91 % 1011,9 hPa 0,0 l/m 0 min 0 min 11 W/m 6,4 km/h (2 Bft) 100,00 %
18.07.2019 06:10 14,7 C 13,9 C 13,9 C 91 % 1012,0 hPa 0,0 l/m 0 min 0 min 11 W/m 6,4 km/h (2 Bft) 100,00 %
18.07.2019 06:12 14,7 C 13,9 C 13,9 C 91 % 1012,0 hPa 0,0 l/m 0 min 0 min 12 W/m 3,2 km/h (1 Bft) 100,00 %
18.07.2019 06:14 14,7 C 13,9 C 13,9 C 91 % 1012,0 hPa 0,0 l/m 0 min 0 min 13 W/m 9,7 km/h (2 Bft) 100,00 %
18.07.2019 06:16 14,7 C 13,9 C 13,9 C 91 % 1012,1 hPa 0,0 l/m 0 min 0 min 14 W/m 6,4 km/h (2 Bft) 100,00 %
18.07.2019 06:18 14,7 C 13,9 C 13,9 C 91 % 1012,1 hPa 0,0 l/m 0 min 0 min 16 W/m 6,4 km/h (2 Bft) 97,87 %
18.07.2019 06:20 14,7 C 13,9 C 13,9 C 91 % 1012,1 hPa 0,0 l/m 0 min 0 min 17 W/m 6,4 km/h (2 Bft) 100,00 %
18.07.2019 06:22 14,7 C 13,9 C 13,9 C 91 % 1012,0 hPa 0,0 l/m 0 min 0 min 18 W/m 0,0 km/h (0 Bft) 100,00 %
18.07.2019 06:24 14,7 C 14,4 C 13,9 C 91 % 1012,0 hPa 0,0 l/m 0 min 0 min 20 W/m 9,7 km/h (2 Bft) 100,00 %
18.07.2019 06:26 14,7 C 14,4 C 13,9 C 91 % 1011,9 hPa 0,0 l/m 0 min 0 min 21 W/m 9,7 km/h (2 Bft) 100,00 %
18.07.2019 06:28 14,7 C 14,4 C 13,9 C 91 % 1011,9 hPa 0,0 l/m 0 min 0 min 24 W/m 6,4 km/h (2 Bft) 100,00 %
18.07.2019 06:30 14,7 C 14,4 C 13,9 C 91 % 1011,9 hPa 0,0 l/m 0 min 0 min 26 W/m 9,7 km/h (2 Bft) 100,00 %
18.07.2019 06:32 14,7 C 14,4 C 13,9 C 91 % 1011,9 hPa 0,0 l/m 0 min 0 min 27 W/m 6,4 km/h (2 Bft) 100,00 %
18.07.2019 06:34 14,7 C 14,4 C 13,9 C 91 % 1011,9 hPa 0,0 l/m 0 min 0 min 30 W/m 0,0 km/h (0 Bft) 100,00 %
18.07.2019 06:36 14,8 C 14,4 C 13,9 C 92 % 1011,9 hPa 0,0 l/m 0 min 0 min 32 W/m 6,4 km/h (2 Bft) 100,00 %
18.07.2019 06:38 14,7 C 14,4 C 13,9 C 92 % 1011,8 hPa 0,0 l/m 0 min 0 min 33 W/m 9,7 km/h (2 Bft) 100,00 %
18.07.2019 06:40 14,8 C 14,4 C 13,9 C 92 % 1011,8 hPa 0,0 l/m 0 min 0 min 35 W/m 6,4 km/h (2 Bft) 100,00 %
18.07.2019 06:42 14,8 C 14,4 C 13,9 C 92 % 1011,8 hPa 0,0 l/m 0 min 0 min 38 W/m 3,2 km/h (1 Bft) 100,00 %
18.07.2019 06:44 14,8 C 14,4 C 13,9 C 92 % 1011,9 hPa 0,0 l/m 0 min 0 min 40 W/m 3,2 km/h (1 Bft) 100,00 %
18.07.2019 06:46 14,8 C 14,4 C 13,9 C 92 % 1011,8 hPa 0,0 l/m 0 min 0 min 42 W/m 6,4 km/h (2 Bft) 100,00 %
18.07.2019 06:48 14,8 C 14,4 C 13,9 C 92 % 1011,9 hPa 0,0 l/m 0 min 0 min 45 W/m 6,4 km/h (2 Bft) 97,83 %
18.07.2019 06:50 14,8 C 14,4 C 13,9 C 92 % 1011,9 hPa 0,0 l/m 0 min 0 min 48 W/m 3,2 km/h (1 Bft) 100,00 %
18.07.2019 06:52 14,8 C 14,4 C 13,9 C 92 % 1011,8 hPa 0,0 l/m 0 min 0 min 50 W/m 0,0 km/h (0 Bft) 100,00 %
18.07.2019 06:54 14,8 C 14,4 C 13,9 C 92 % 1011,9 hPa 0,0 l/m 0 min 0 min 51 W/m 0,0 km/h (0 Bft) 97,87 %
18.07.2019 06:56 14,8 C 14,4 C 13,9 C 92 % 1011,8 hPa 0,0 l/m 0 min 0 min 52 W/m 0,0 km/h (0 Bft) 100,00 %
18.07.2019 06:58 14,8 C 15,0 C 14,4 C 92 % 1011,9 hPa 0,0 l/m 0 min 0 min 53 W/m 6,4 km/h (2 Bft) 100,00 %
18.07.2019 07:00 14,9 C 15,0 C 14,4 C 92 % 1011,9 hPa 0,0 l/m 0 min 0 min 54 W/m 3,2 km/h (1 Bft) 100,00 %
18.07.2019 07:02 14,9 C 15,0 C 14,4 C 92 % 1011,9 hPa 0,0 l/m 0 min 0 min 57 W/m 3,2 km/h (1 Bft) 100,00 %
18.07.2019 07:04 14,9 C 15,0 C 14,4 C 92 % 1011,9 hPa 0,0 l/m 0 min 0 min 58 W/m 6,4 km/h (2 Bft) 100,00 %
18.07.2019 07:06 14,9 C 15,0 C 14,4 C 92 % 1011,9 hPa 0,0 l/m 0 min 0 min 59 W/m 9,7 km/h (2 Bft) 97,87 %
18.07.2019 07:08 14,9 C 15,0 C 14,4 C 92 % 1011,9 hPa 0,0 l/m 0 min 0 min 60 W/m 9,7 km/h (2 Bft) 97,87 %
18.07.2019 07:10 14,9 C 15,0 C 14,4 C 92 % 1011,8 hPa 0,0 l/m 0 min 0 min 62 W/m 9,7 km/h (2 Bft) 95,74 %
18.07.2019 07:12 14,9 C 15,0 C 14,4 C 92 % 1011,8 hPa 0,0 l/m 0 min 0 min 62 W/m 9,7 km/h (2 Bft) 97,83 %
18.07.2019 07:14 15,0 C 15,0 C 14,4 C 92 % 1011,9 hPa 0,0 l/m 0 min 0 min 63 W/m 9,7 km/h (2 Bft) 97,87 %
18.07.2019 07:16 15,0 C 15,0 C 14,4 C 92 % 1011,9 hPa 0,0 l/m 0 min 0 min 62 W/m 6,4 km/h (2 Bft) 93,62 %
18.07.2019 07:18 15,1 C 15,6 C 14,4 C 92 % 1011,9 hPa 0,0 l/m 0 min 0 min 62 W/m 9,7 km/h (2 Bft) 93,62 %
18.07.2019 07:20 15,1 C 15,6 C 14,4 C 92 % 1012,0 hPa 0,0 l/m 0 min 0 min 60 W/m 12,9 km/h (3 Bft) 95,74 %
18.07.2019 07:22 15,1 C 15,6 C 15,0 C 92 % 1011,9 hPa 0,0 l/m 0 min 0 min 58 W/m 12,9 km/h (3 Bft) 95,74 %
18.07.2019 07:24 15,1 C 15,0 C 14,4 C 92 % 1011,9 hPa 0,0 l/m 0 min 0 min 59 W/m 16,1 km/h (3 Bft) 91,30 %
18.07.2019 07:26 15,2 C 15,6 C 14,4 C 92 % 1012,0 hPa 0,0 l/m 0 min 0 min 62 W/m 9,7 km/h (2 Bft) 95,74 %
18.07.2019 07:28 15,2 C 15,6 C 14,4 C 92 % 1012,0 hPa 0,0 l/m 0 min 0 min 61 W/m 9,7 km/h (2 Bft) 95,74 %
18.07.2019 07:30 15,2 C 15,6 C 14,4 C 92 % 1012,0 hPa 0,0 l/m 0 min 0 min 63 W/m 12,9 km/h (3 Bft) 95,74 %
18.07.2019 07:32 15,2 C 15,6 C 14,4 C 92 % 1012,0 hPa 0,0 l/m 0 min 0 min 66 W/m 9,7 km/h (2 Bft) 95,74 %
18.07.2019 07:34 15,2 C 15,6 C 14,4 C 92 % 1012,0 hPa 0,0 l/m 0 min 0 min 70 W/m 16,1 km/h (3 Bft) 91,49 %
18.07.2019 07:36 15,2 C 15,6 C 14,4 C 92 % 1011,9 hPa 0,0 l/m 0 min 0 min 74 W/m 16,1 km/h (3 Bft) 89,13 %
18.07.2019 07:38 15,3 C 15,6 C 14,4 C 91 % 1011,9 hPa 0,0 l/m 0 min 0 min 77 W/m 16,1 km/h (3 Bft) 93,62 %
18.07.2019 07:40 15,3 C 15,6 C 14,4 C 91 % 1012,0 hPa 0,0 l/m 0 min 0 min 83 W/m 16,1 km/h (3 Bft) 93,62 %
18.07.2019 07:42 15,3 C 15,6 C 15,0 C 91 % 1011,9 hPa 0,0 l/m 0 min 0 min 87 W/m 9,7 km/h (2 Bft) 91,49 %
18.07.2019 07:44 15,3 C 15,6 C 15,0 C 91 % 1012,0 hPa 0,0 l/m 0 min 0 min 91 W/m 9,7 km/h (2 Bft) 93,62 %
18.07.2019 07:46 15,3 C 15,6 C 15,0 C 91 % 1011,9 hPa 0,0 l/m 0 min 0 min 97 W/m 16,1 km/h (3 Bft) 93,48 %
18.07.2019 07:48 15,4 C 15,6 C 15,0 C 91 % 1012,0 hPa 0,0 l/m 0 min 0 min 107 W/m 16,1 km/h (3 Bft) 93,62 %
18.07.2019 07:50 15,4 C 16,1 C 15,0 C 91 % 1011,9 hPa 0,0 l/m 0 min 0 min 119 W/m 9,7 km/h (2 Bft) 93,62 %
18.07.2019 07:52 15,4 C 16,1 C 15,6 C 91 % 1011,9 hPa 0,0 l/m 0 min 0 min 130 W/m 16,1 km/h (3 Bft) 95,74 %
18.07.2019 07:54 15,5 C 16,7 C 15,6 C 91 % 1011,9 hPa 0,0 l/m 0 min 0 min 140 W/m 16,1 km/h (3 Bft) 93,62 %
18.07.2019 07:56 15,6 C 16,7 C 15,6 C 91 % 1011,9 hPa 0,0 l/m 0 min 0 min 151 W/m 16,1 km/h (3 Bft) 95,74 %
18.07.2019 07:58 15,6 C 17,2 C 16,1 C 91 % 1011,9 hPa 0,0 l/m 2 min 0 min 162 W/m 9,7 km/h (2 Bft) 94,00 %
18.07.2019 08:00 15,7 C 17,2 C 16,1 C 91 % 1011,9 hPa 0,0 l/m 2 min 0 min 170 W/m 16,1 km/h (3 Bft) 93,62 %
18.07.2019 08:02 15,7 C 17,2 C 16,7 C 91 % 1011,9 hPa 0,0 l/m 2 min 0 min 176 W/m 12,9 km/h (3 Bft) 95,74 %
18.07.2019 08:04 15,8 C 17,8 C 16,7 C 91 % 1011,9 hPa 0,0 l/m 2 min 0 min 180 W/m 6,4 km/h (2 Bft) 93,62 %
18.07.2019 08:06 15,9 C 18,3 C 16,7 C 90 % 1011,9 hPa 0,0 l/m 2 min 0 min 178 W/m 9,7 km/h (2 Bft) 95,74 %
18.07.2019 08:08 15,9 C 18,3 C 17,2 C 90 % 1011,9 hPa 0,0 l/m 2 min 0 min 179 W/m 16,1 km/h (3 Bft) 91,30 %
18.07.2019 08:10 16,0 C 18,3 C 17,2 C 90 % 1011,9 hPa 0,0 l/m 2 min 0 min 184 W/m 9,7 km/h (2 Bft) 91,49 %
18.07.2019 08:12 16,1 C 18,9 C 17,2 C 90 % 1011,8 hPa 0,0 l/m 2 min 0 min 186 W/m 9,7 km/h (2 Bft) 97,87 %
18.07.2019 08:14 16,2 C 18,9 C 17,2 C 90 % 1011,9 hPa 0,0 l/m 2 min 0 min 186 W/m 9,7 km/h (2 Bft) 97,87 %
18.07.2019 08:16 16,3 C 18,9 C 17,2 C 89 % 1011,9 hPa 0,0 l/m 0 min 0 min 178 W/m 16,1 km/h (3 Bft) 97,87 %
18.07.2019 08:18 16,4 C 18,9 C 17,2 C 89 % 1011,8 hPa 0,0 l/m 0 min 0 min 168 W/m 12,9 km/h (3 Bft) 97,87 %
18.07.2019 08:20 16,5 C 18,3 C 17,2 C 88 % 1011,8 hPa 0,0 l/m 0 min 0 min 160 W/m 9,7 km/h (2 Bft) 97,83 %
18.07.2019 08:22 16,6 C 18,3 C 17,2 C 88 % 1011,8 hPa 0,0 l/m 0 min 0 min 152 W/m 9,7 km/h (2 Bft) 97,87 %
18.07.2019 08:24 16,7 C 18,3 C 17,2 C 87 % 1011,8 hPa 0,0 l/m 0 min 0 min 148 W/m 9,7 km/h (2 Bft) 97,87 %
18.07.2019 08:26 16,8 C 18,3 C 17,2 C 87 % 1011,8 hPa 0,0 l/m 0 min 0 min 146 W/m 16,1 km/h (3 Bft) 97,87 %
18.07.2019 08:28 16,9 C 18,3 C 17,2 C 87 % 1011,8 hPa 0,0 l/m 0 min 0 min 146 W/m 9,7 km/h (2 Bft) 97,87 %
18.07.2019 08:30 17,0 C 18,3 C 17,2 C 86 % 1011,8 hPa 0,0 l/m 0 min 0 min 147 W/m 9,7 km/h (2 Bft) 97,87 %
18.07.2019 08:32 17,1 C 18,3 C 17,2 C 86 % 1011,8 hPa 0,0 l/m 0 min 0 min 146 W/m 9,7 km/h (2 Bft) 100,00 %
18.07.2019 08:34 17,1 C 18,3 C 17,2 C 86 % 1011,8 hPa 0,0 l/m 0 min 0 min 146 W/m 9,7 km/h (2 Bft) 100,00 %
18.07.2019 08:36 17,2 C 18,3 C 17,8 C 85 % 1011,8 hPa 0,0 l/m 0 min 0 min 147 W/m 9,7 km/h (2 Bft) 97,87 %
18.07.2019 08:38 17,2 C 18,3 C 17,8 C 85 % 1011,8 hPa 0,0 l/m 0 min 0 min 144 W/m 9,7 km/h (2 Bft) 100,00 %
18.07.2019 08:40 17,3 C 18,3 C 17,8 C 85 % 1011,8 hPa 0,0 l/m 0 min 0 min 138 W/m 9,7 km/h (2 Bft) 100,00 %
18.07.2019 08:42 17,3 C 18,3 C 17,8 C 84 % 1011,8 hPa 0,0 l/m 0 min 0 min 134 W/m 12,9 km/h (3 Bft) 97,87 %
18.07.2019 08:44 17,4 C 18,3 C 17,8 C 84 % 1011,8 hPa 0,0 l/m 0 min 0 min 133 W/m 9,7 km/h (2 Bft) 100,00 %
18.07.2019 08:46 17,4 C 18,3 C 17,8 C 84 % 1011,8 hPa 0,0 l/m 0 min 0 min 132 W/m 12,9 km/h (3 Bft) 97,83 %
18.07.2019 08:48 17,5 C 18,3 C 17,8 C 83 % 1011,8 hPa 0,0 l/m 0 min 0 min 124 W/m 6,4 km/h (2 Bft) 97,87 %
18.07.2019 08:50 17,6 C 18,3 C 17,8 C 83 % 1011,8 hPa 0,0 l/m 0 min 0 min 117 W/m 9,7 km/h (2 Bft) 100,00 %
18.07.2019 08:52 17,6 C 18,3 C 17,8 C 83 % 1011,8 hPa 0,0 l/m 0 min 0 min 108 W/m 9,7 km/h (2 Bft) 100,00 %
18.07.2019 08:54 17,7 C 18,3 C 18,3 C 83 % 1011,7 hPa 0,0 l/m 0 min 0 min 109 W/m 9,7 km/h (2 Bft) 97,87 %
18.07.2019 08:56 17,7 C 18,9 C 18,3 C 83 % 1011,7 hPa 0,0 l/m 0 min 0 min 105 W/m 6,4 km/h (2 Bft) 100,00 %
18.07.2019 08:58 17,7 C 18,9 C 18,3 C 83 % 1011,8 hPa 0,0 l/m 0 min 0 min 94 W/m 6,4 km/h (2 Bft) 100,00 %
18.07.2019 09:00 17,8 C 19,4 C 18,9 C 83 % 1011,8 hPa 0,0 l/m 0 min 0 min 143 W/m 6,4 km/h (2 Bft) 100,00 %
18.07.2019 09:02 17,8 C 18,9 C 18,3 C 83 % 1011,9 hPa 0,0 l/m 0 min 0 min 103 W/m 16,1 km/h (3 Bft) 100,00 %
18.07.2019 09:04 17,9 C 20,6 C 20,0 C 83 % 1011,8 hPa 0,0 l/m 0 min 0 min 146 W/m 9,7 km/h (2 Bft) 100,00 %
18.07.2019 09:06 17,9 C 21,1 C 21,1 C 82 % 1011,9 hPa 0,0 l/m 2 min 0 min 286 W/m 12,9 km/h (3 Bft) 100,00 %
18.07.2019 09:08 18,0 C 22,2 C 22,2 C 82 % 1011,8 hPa 0,0 l/m 2 min 0 min 320 W/m 9,7 km/h (2 Bft) 100,00 %
18.07.2019 09:10 18,1 C 22,8 C 23,3 C 82 % 1011,8 hPa 0,0 l/m 2 min 0 min 385 W/m 16,1 km/h (3 Bft) 100,00 %
18.07.2019 09:12 18,2 C 22,8 C 23,3 C 82 % 1011,8 hPa 0,0 l/m 2 min 0 min 404 W/m 16,1 km/h (3 Bft) 100,00 %
18.07.2019 09:14 18,4 C 23,3 C 24,4 C 81 % 1011,8 hPa 0,0 l/m 2 min 0 min 427 W/m 12,9 km/h (3 Bft) 100,00 %
18.07.2019 09:16 18,5 C 23,9 C 25,0 C 81 % 1011,9 hPa 0,0 l/m 2 min 0 min 461 W/m 16,1 km/h (3 Bft) 97,87 %
18.07.2019 09:18 18,7 C 23,9 C 25,6 C 81 % 1011,9 hPa 0,0 l/m 2 min 0 min 472 W/m 9,7 km/h (2 Bft) 100,00 %
18.07.2019 09:20 18,8 C 23,3 C 25,6 C 80 % 1012,0 hPa 0,0 l/m 2 min 0 min 466 W/m 12,9 km/h (3 Bft) 100,00 %
18.07.2019 09:22 18,9 C 23,9 C 25,0 C 80 % 1011,9 hPa 0,0 l/m 0 min 0 min 241 W/m 16,1 km/h (3 Bft) 100,00 %
18.07.2019 09:24 19,1 C 23,3 C 24,4 C 79 % 1012,0 hPa 0,0 l/m 0 min 0 min 214 W/m 9,7 km/h (2 Bft) 97,87 %
18.07.2019 09:26 19,2 C 23,3 C 24,4 C 79 % 1011,9 hPa 0,0 l/m 0 min 0 min 246 W/m 6,4 km/h (2 Bft) 100,00 %
18.07.2019 09:28 19,3 C 22,2 C 23,3 C 78 % 1011,8 hPa 0,0 l/m 2 min 0 min 270 W/m 9,7 km/h (2 Bft) 100,00 %
18.07.2019 09:30 19,4 C 21,1 C 22,2 C 76 % 1011,8 hPa 0,0 l/m 0 min 0 min 249 W/m 12,9 km/h (3 Bft) 97,92 %
18.07.2019 09:32 19,5 C 22,2 C 21,7 C 76 % 1011,7 hPa 0,0 l/m 0 min 0 min 207 W/m 16,1 km/h (3 Bft) 100,00 %
18.07.2019 09:34 19,6 C 22,2 C 22,2 C 76 % 1011,8 hPa 0,0 l/m 2 min 0 min 314 W/m 12,9 km/h (3 Bft) 97,87 %
18.07.2019 09:36 19,7 C 22,2 C 22,8 C 76 % 1011,8 hPa 0,0 l/m 2 min 0 min 278 W/m 12,9 km/h (3 Bft) 95,74 %
18.07.2019 09:38 19,8 C 22,2 C 22,8 C 75 % 1011,8 hPa 0,0 l/m 2 min 0 min 403 W/m 9,7 km/h (2 Bft) 95,74 %
18.07.2019 09:40 19,9 C 23,3 C 23,9 C 75 % 1011,7 hPa 0,0 l/m 2 min 0 min 403 W/m 9,7 km/h (2 Bft) 95,74 %
18.07.2019 09:42 19,9 C 23,9 C 24,4 C 75 % 1011,8 hPa 0,0 l/m 2 min 0 min 438 W/m 9,7 km/h (2 Bft) 97,87 %
18.07.2019 09:44 20,1 C 23,9 C 25,0 C 74 % 1011,7 hPa 0,0 l/m 2 min 0 min 516 W/m 16,1 km/h (3 Bft) 97,83 %
18.07.2019 09:46 20,2 C 24,4 C 25,0 C 74 % 1011,6 hPa 0,0 l/m 2 min 0 min 515 W/m 16,1 km/h (3 Bft) 97,87 %
18.07.2019 09:48 20,3 C 24,4 C 25,6 C 73 % 1011,7 hPa 0,0 l/m 2 min 0 min 517 W/m 9,7 km/h (2 Bft) 97,87 %
18.07.2019 09:50 20,4 C 24,4 C 25,6 C 73 % 1011,8 hPa 0,0 l/m 2 min 0 min 522 W/m 16,1 km/h (3 Bft) 97,87 %
18.07.2019 09:52 20,5 C 25,0 C 25,6 C 73 % 1011,8 hPa 0,0 l/m 2 min 0 min 525 W/m 12,9 km/h (3 Bft) 97,87 %
18.07.2019 09:54 20,7 C 24,4 C 25,6 C 72 % 1011,8 hPa 0,0 l/m 2 min 0 min 526 W/m 22,5 km/h (4 Bft) 95,74 %
18.07.2019 09:56 20,8 C 24,4 C 25,0 C 72 % 1011,8 hPa 0,0 l/m 2 min 0 min 535 W/m 16,1 km/h (3 Bft) 97,83 %
18.07.2019 09:58 20,9 C 25,0 C 25,6 C 72 % 1011,8 hPa 0,0 l/m 2 min 0 min 549 W/m 12,9 km/h (3 Bft) 97,87 %
18.07.2019 10:00 21,0 C 25,0 C 25,6 C 72 % 1011,7 hPa 0,0 l/m 2 min 0 min 539 W/m 9,7 km/h (2 Bft) 97,87 %
18.07.2019 10:02 21,1 C 23,9 C 24,4 C 72 % 1011,7 hPa 0,0 l/m 2 min 0 min 522 W/m 12,9 km/h (3 Bft) 97,87 %
18.07.2019 10:04 21,1 C 23,9 C 25,0 C 71 % 1011,7 hPa 0,0 l/m 2 min 0 min 403 W/m 6,4 km/h (2 Bft) 97,87 %
18.07.2019 10:06 21,2 C 25,0 C 26,1 C 71 % 1011,7 hPa 0,0 l/m 2 min 0 min 424 W/m 12,9 km/h (3 Bft) 97,87 %
18.07.2019 10:08 21,3 C 26,1 C 27,2 C 71 % 1011,7 hPa 0,0 l/m 2 min 0 min 581 W/m 6,4 km/h (2 Bft) 97,83 %
18.07.2019 10:10 21,4 C 26,7 C 27,2 C 71 % 1011,6 hPa 0,0 l/m 2 min 0 min 579 W/m 9,7 km/h (2 Bft) 97,87 %
18.07.2019 10:12 21,5 C 26,7 C 27,2 C 71 % 1011,6 hPa 0,0 l/m 2 min 0 min 574 W/m 9,7 km/h (2 Bft) 95,74 %
18.07.2019 10:14 21,7 C 27,2 C 28,3 C 71 % 1011,6 hPa 0,0 l/m 2 min 0 min 582 W/m 12,9 km/h (3 Bft) 100,00 %
18.07.2019 10:16 21,8 C 26,7 C 27,2 C 69 % 1011,6 hPa 0,0 l/m 2 min 0 min 590 W/m 19,3 km/h (3 Bft) 97,87 %
18.07.2019 10:18 21,9 C 26,7 C 27,8 C 68 % 1011,6 hPa 0,0 l/m 2 min 0 min 596 W/m 12,9 km/h (3 Bft) 95,74 %
18.07.2019 10:20 22,0 C 26,1 C 28,9 C 68 % 1011,6 hPa 0,0 l/m 2 min 0 min 605 W/m 16,1 km/h (3 Bft) 97,83 %
18.07.2019 10:22 22,1 C 25,6 C 28,9 C 68 % 1011,5 hPa 0,0 l/m 2 min 0 min 612 W/m 12,9 km/h (3 Bft) 95,74 %
18.07.2019 10:24 22,2 C 26,1 C 28,9 C 68 % 1011,6 hPa 0,0 l/m 2 min 0 min 626 W/m 9,7 km/h (2 Bft) 97,87 %
18.07.2019 10:26 22,3 C 26,7 C 28,9 C 67 % 1011,5 hPa 0,0 l/m 2 min 0 min 638 W/m 16,1 km/h (3 Bft) 97,87 %
18.07.2019 10:28 22,4 C 26,7 C 28,3 C 67 % 1011,4 hPa 0,0 l/m 2 min 0 min 652 W/m 16,1 km/h (3 Bft) 97,87 %
18.07.2019 10:30 22,6 C 26,1 C 28,3 C 67 % 1011,5 hPa 0,0 l/m 2 min 0 min 667 W/m 16,1 km/h (3 Bft) 97,83 %
18.07.2019 10:32 22,7 C 27,2 C 28,9 C 67 % 1011,4 hPa 0,0 l/m 2 min 0 min 682 W/m 9,7 km/h (2 Bft) 97,87 %
18.07.2019 10:34 22,8 C 28,3 C 29,4 C 66 % 1011,4 hPa 0,0 l/m 2 min 0 min 703 W/m 9,7 km/h (2 Bft) 97,87 %
18.07.2019 10:36 22,9 C 28,9 C 30,0 C 66 % 1011,5 hPa 0,0 l/m 2 min 0 min 718 W/m 9,7 km/h (2 Bft) 97,87 %
18.07.2019 10:38 23,1 C 28,3 C 29,4 C 66 % 1011,4 hPa 0,0 l/m 2 min 0 min 724 W/m 12,9 km/h (3 Bft) 97,87 %
18.07.2019 10:40 23,2 C 28,3 C 29,4 C 65 % 1011,4 hPa 0,0 l/m 2 min 0 min 726 W/m 19,3 km/h (3 Bft) 97,87 %
18.07.2019 10:42 23,3 C 27,2 C 29,4 C 64 % 1011,4 hPa 0,0 l/m 2 min 0 min 719 W/m 22,5 km/h (4 Bft) 97,83 %
18.07.2019 10:44 23,4 C 28,3 C 30,0 C 64 % 1011,4 hPa 0,0 l/m 2 min 0 min 717 W/m 9,7 km/h (2 Bft) 97,87 %
18.07.2019 10:46 23,6 C 27,2 C 29,4 C 64 % 1011,3 hPa 0,0 l/m 2 min 0 min 546 W/m 9,7 km/h (2 Bft) 97,87 %
18.07.2019 10:48 23,7 C 27,8 C 30,6 C 64 % 1011,4 hPa 0,0 l/m 2 min 0 min 616 W/m 9,7 km/h (2 Bft) 97,87 %
18.07.2019 10:50 23,8 C 28,3 C 29,4 C 63 % 1011,4 hPa 0,0 l/m 2 min 0 min 715 W/m 12,9 km/h (3 Bft) 97,87 %
18.07.2019 10:52 23,9 C 27,2 C 28,9 C 62 % 1011,4 hPa 0,0 l/m 2 min 0 min 704 W/m 16,1 km/h (3 Bft) 97,87 %
18.07.2019 10:54 23,9 C 27,2 C 27,8 C 62 % 1011,4 hPa 0,0 l/m 2 min 0 min 700 W/m 19,3 km/h (3 Bft) 97,83 %
18.07.2019 10:56 24,0 C 26,1 C 27,2 C 60 % 1011,4 hPa 0,0 l/m 2 min 0 min 526 W/m 16,1 km/h (3 Bft) 97,87 %
18.07.2019 10:58 24,1 C 26,1 C 27,2 C 60 % 1011,4 hPa 0,0 l/m 2 min 0 min 563 W/m 12,9 km/h (3 Bft) 95,74 %
18.07.2019 11:00 24,1 C 26,7 C 27,2 C 60 % 1011,5 hPa 0,0 l/m 2 min 0 min 489 W/m 16,1 km/h (3 Bft) 93,62 %
18.07.2019 11:02 24,1 C 27,8 C 28,3 C 58 % 1011,5 hPa 0,0 l/m 2 min 0 min 551 W/m 9,7 km/h (2 Bft) 95,74 %
18.07.2019 11:04 24,1 C 28,9 C 29,4 C 58 % 1011,5 hPa 0,0 l/m 2 min 0 min 780 W/m 12,9 km/h (3 Bft) 95,74 %
18.07.2019 11:06 24,2 C 30,6 C 30,6 C 59 % 1011,5 hPa 0,0 l/m 2 min 0 min 795 W/m 9,7 km/h (2 Bft) 95,65 %
18.07.2019 11:08 24,3 C 30,6 C 31,1 C 58 % 1011,4 hPa 0,0 l/m 2 min 0 min 818 W/m 6,4 km/h (2 Bft) 97,87 %
18.07.2019 11:10 24,4 C 30,0 C 30,6 C 58 % 1011,4 hPa 0,0 l/m 2 min 0 min 823 W/m 9,7 km/h (2 Bft) 100,00 %
18.07.2019 11:12 24,6 C 31,1 C 30,6 C 58 % 1011,5 hPa 0,0 l/m 2 min 0 min 860 W/m 9,7 km/h (2 Bft) 100,00 %
18.07.2019 11:14 24,7 C 30,0 C 30,0 C 57 % 1011,4 hPa 0,0 l/m 2 min 0 min 908 W/m 16,1 km/h (3 Bft) 100,00 %
18.07.2019 11:16 24,8 C 30,6 C 30,6 C 57 % 1011,5 hPa 0,0 l/m 2 min 0 min 949 W/m 16,1 km/h (3 Bft) 97,83 %
18.07.2019 11:18 24,9 C 30,6 C 30,6 C 57 % 1011,6 hPa 0,0 l/m 2 min 0 min 945 W/m 12,9 km/h (3 Bft) 97,87 %
18.07.2019 11:20 25,0 C 29,4 C 29,4 C 56 % 1011,5 hPa 0,0 l/m 2 min 0 min 951 W/m 9,7 km/h (2 Bft) 97,87 %
18.07.2019 11:22 25,1 C 29,4 C 28,9 C 57 % 1011,5 hPa 0,0 l/m 2 min 0 min 800 W/m 12,9 km/h (3 Bft) 97,87 %
18.07.2019 11:24 25,1 C 27,2 C 27,8 C 56 % 1011,5 hPa 0,0 l/m 2 min 0 min 737 W/m 16,1 km/h (3 Bft) 97,87 %
18.07.2019 11:26 25,1 C 26,7 C 26,7 C 56 % 1011,5 hPa 0,0 l/m 2 min 0 min 463 W/m 16,1 km/h (3 Bft) 95,74 %
18.07.2019 11:28 25,0 C 25,6 C 25,0 C 56 % 1011,5 hPa 0,0 l/m 2 min 0 min 417 W/m 9,7 km/h (2 Bft) 97,83 %
18.07.2019 11:30 24,9 C 25,6 C 25,0 C 57 % 1011,5 hPa 0,0 l/m 2 min 0 min 378 W/m 12,9 km/h (3 Bft) 97,87 %
18.07.2019 11:32 24,9 C 25,6 C 25,6 C 57 % 1011,4 hPa 0,0 l/m 2 min 0 min 403 W/m 16,1 km/h (3 Bft) 95,74 %
18.07.2019 11:34 24,8 C 25,6 C 25,0 C 57 % 1011,5 hPa 0,0 l/m 2 min 0 min 420 W/m 22,5 km/h (4 Bft) 97,87 %
18.07.2019 11:36 24,8 C 27,2 C 26,7 C 58 % 1011,5 hPa 0,0 l/m 2 min 0 min 436 W/m 9,7 km/h (2 Bft) 97,87 %
18.07.2019 11:38 24,8 C 26,1 C 26,1 C 58 % 1011,5 hPa 0,0 l/m 0 min 0 min 369 W/m 16,1 km/h (3 Bft) 97,87 %
18.07.2019 11:40 24,7 C 25,6 C 25,6 C 57 % 1011,5 hPa 0,0 l/m 0 min 0 min 324 W/m 12,9 km/h (3 Bft) 97,83 %
18.07.2019 11:42 24,7 C 25,0 C 25,0 C 58 % 1011,4 hPa 0,0 l/m 0 min 0 min 299 W/m 19,3 km/h (3 Bft) 97,87 %
18.07.2019 11:44 24,7 C 24,4 C 24,4 C 56 % 1011,5 hPa 0,0 l/m 0 min 0 min 307 W/m 19,3 km/h (3 Bft) 97,87 %
18.07.2019 11:46 24,4 C 24,4 C 24,4 C 56 % 1011,4 hPa 0,0 l/m 2 min 0 min 384 W/m 12,9 km/h (3 Bft) 97,87 %
18.07.2019 11:48 24,3 C 25,0 C 24,4 C 57 % 1011,4 hPa 0,0 l/m 2 min 0 min 430 W/m 12,9 km/h (3 Bft) 97,87 %
18.07.2019 11:50 24,3 C 26,1 C 25,6 C 57 % 1011,4 hPa 0,0 l/m 2 min 0 min 462 W/m 6,4 km/h (2 Bft) 97,87 %
18.07.2019 11:52 24,2 C 26,7 C 25,6 C 57 % 1011,4 hPa 0,0 l/m 2 min 0 min 487 W/m 12,9 km/h (3 Bft) 97,83 %
18.07.2019 11:54 24,2 C 27,2 C 26,1 C 57 % 1011,4 hPa 0,0 l/m 2 min 0 min 519 W/m 6,4 km/h (2 Bft) 95,74 %
18.07.2019 11:56 24,2 C 27,8 C 27,2 C 58 % 1011,4 hPa 0,0 l/m 2 min 0 min 503 W/m 9,7 km/h (2 Bft) 93,62 %
18.07.2019 11:58 24,3 C 27,8 C 27,8 C 58 % 1011,4 hPa 0,0 l/m 2 min 0 min 556 W/m 16,1 km/h (3 Bft) 97,87 %
18.07.2019 12:00 24,3 C 27,2 C 27,2 C 58 % 1011,4 hPa 0,0 l/m 2 min 0 min 588 W/m 16,1 km/h (3 Bft) 97,87 %
18.07.2019 12:02 24,4 C 27,2 C 27,2 C 58 % 1011,4 hPa 0,0 l/m 2 min 0 min 584 W/m 16,1 km/h (3 Bft) 93,62 %
18.07.2019 12:04 24,4 C 27,8 C 27,2 C 58 % 1011,4 hPa 0,0 l/m 2 min 0 min 545 W/m 16,1 km/h (3 Bft) 93,48 %
18.07.2019 12:08 24,5 C 27,8 C 27,8 C 58 % 1011,3 hPa 0,0 l/m 4 min 0 min 528 W/m 19,3 km/h (3 Bft) 95,79 %
18.07.2019 12:10 24,6 C 28,9 C 28,3 C 59 % 1011,4 hPa 0,0 l/m 2 min 0 min 534 W/m 9,7 km/h (2 Bft) 95,74 %
18.07.2019 12:12 24,7 C 30,6 C 30,6 C 58 % 1011,4 hPa 0,0 l/m 2 min 0 min 802 W/m 9,7 km/h (2 Bft) 95,74 %
18.07.2019 12:14 24,7 C 30,0 C 31,1 C 56 % 1011,4 hPa 0,0 l/m 2 min 0 min 919 W/m 9,7 km/h (2 Bft) 93,62 %
18.07.2019 12:16 24,8 C 29,4 C 30,0 C 55 % 1011,3 hPa 0,0 l/m 2 min 0 min 908 W/m 22,5 km/h (4 Bft) 95,65 %
18.07.2019 12:18 24,9 C 30,0 C 31,1 C 53 % 1011,3 hPa 0,0 l/m 2 min 0 min 894 W/m 9,7 km/h (2 Bft) 95,74 %
18.07.2019 12:20 25,0 C 30,6 C 31,7 C 54 % 1011,4 hPa 0,0 l/m 2 min 0 min 895 W/m 16,1 km/h (3 Bft) 95,74 %
18.07.2019 12:22 25,1 C 31,1 C 32,2 C 54 % 1011,3 hPa 0,0 l/m 2 min 0 min 890 W/m 9,7 km/h (2 Bft) 97,87 %
18.07.2019 12:24 25,2 C 32,2 C 32,8 C 56 % 1011,3 hPa 0,0 l/m 2 min 0 min 872 W/m 6,4 km/h (2 Bft) 95,74 %
18.07.2019 12:26 25,5 C 32,8 C 33,3 C 55 % 1011,4 hPa 0,0 l/m 2 min 0 min 855 W/m 9,7 km/h (2 Bft) 97,83 %
18.07.2019 12:28 25,7 C 32,2 C 32,8 C 55 % 1011,3 hPa 0,0 l/m 2 min 0 min 835 W/m 12,9 km/h (3 Bft) 97,87 %
18.07.2019 12:30 25,9 C 32,2 C 32,8 C 54 % 1011,3 hPa 0,0 l/m 2 min 0 min 824 W/m 12,9 km/h (3 Bft) 95,74 %
18.07.2019 12:32 26,1 C 32,2 C 32,2 C 54 % 1011,3 hPa 0,0 l/m 2 min 0 min 819 W/m 9,7 km/h (2 Bft) 98,15 %
18.07.2019 12:34 26,3 C 33,3 C 33,3 C 53 % 1011,3 hPa 0,0 l/m 2 min 0 min 863 W/m 12,9 km/h (3 Bft) 97,87 %
18.07.2019 12:36 26,4 C 32,2 C 33,9 C 52 % 1011,3 hPa 0,0 l/m 2 min 0 min 886 W/m 16,1 km/h (3 Bft) 97,83 %
18.07.2019 12:38 26,5 C 31,1 C 33,3 C 51 % 1011,3 hPa 0,0 l/m 2 min 0 min 888 W/m 12,9 km/h (3 Bft) 97,87 %
18.07.2019 12:40 26,6 C 30,6 C 32,8 C 51 % 1011,3 hPa 0,0 l/m 2 min 0 min 871 W/m 16,1 km/h (3 Bft) 97,87 %
18.07.2019 12:42 26,7 C 31,1 C 33,3 C 51 % 1011,2 hPa 0,0 l/m 2 min 0 min 880 W/m 9,7 km/h (2 Bft) 97,87 %
18.07.2019 12:44 26,8 C 32,2 C 33,9 C 51 % 1011,2 hPa 0,0 l/m 2 min 0 min 909 W/m 9,7 km/h (2 Bft) 100,00 %
18.07.2019 12:46 26,9 C 32,8 C 33,9 C 52 % 1011,2 hPa 0,0 l/m 2 min 0 min 905 W/m 6,4 km/h (2 Bft) 100,00 %
18.07.2019 12:48 27,1 C 32,8 C 33,9 C 52 % 1011,2 hPa 0,0 l/m 2 min 0 min 872 W/m 12,9 km/h (3 Bft) 100,00 %
18.07.2019 12:50 27,2 C 32,8 C 33,3 C 52 % 1011,1 hPa 0,0 l/m 2 min 0 min 872 W/m 9,7 km/h (2 Bft) 97,87 %
18.07.2019 12:52 27,2 C 31,1 C 33,3 C 50 % 1011,2 hPa 0,0 l/m 2 min 0 min 923 W/m 12,9 km/h (3 Bft) 100,00 %
18.07.2019 12:54 27,3 C 31,1 C 32,8 C 52 % 1011,1 hPa 0,0 l/m 2 min 0 min 908 W/m 9,7 km/h (2 Bft) 100,00 %
18.07.2019 12:56 27,3 C 31,1 C 32,2 C 50 % 1011,1 hPa 0,0 l/m 2 min 0 min 858 W/m 9,7 km/h (2 Bft) 100,00 %
18.07.2019 12:58 27,3 C 31,7 C 32,8 C 50 % 1011,1 hPa 0,0 l/m 2 min 0 min 824 W/m 6,4 km/h (2 Bft) 97,87 %
18.07.2019 13:00 27,4 C 32,2 C 32,8 C 51 % 1011,0 hPa 0,0 l/m 2 min 0 min 884 W/m 6,4 km/h (2 Bft) 97,83 %
18.07.2019 13:02 27,4 C 31,1 C 32,2 C 51 % 1011,2 hPa 0,0 l/m 2 min 0 min 884 W/m 12,9 km/h (3 Bft) 95,74 %
18.07.2019 13:04 27,4 C 30,0 C 30,6 C 50 % 1011,0 hPa 0,0 l/m 2 min 0 min 546 W/m 9,7 km/h (2 Bft) 100,00 %
18.07.2019 13:06 27,4 C 30,6 C 31,7 C 50 % 1011,1 hPa 0,0 l/m 2 min 0 min 573 W/m 19,3 km/h (3 Bft) 100,00 %
18.07.2019 13:08 27,4 C 29,4 C 30,0 C 49 % 1011,0 hPa 0,0 l/m 2 min 0 min 720 W/m 16,1 km/h (3 Bft) 100,00 %
18.07.2019 13:10 27,4 C 31,1 C 31,1 C 50 % 1011,0 hPa 0,0 l/m 2 min 0 min 762 W/m 9,7 km/h (2 Bft) 100,00 %
18.07.2019 13:12 27,5 C 30,0 C 30,0 C 52 % 1011,0 hPa 0,0 l/m 2 min 0 min 1000 W/m 12,9 km/h (3 Bft) 100,00 %
18.07.2019 13:14 27,4 C 30,0 C 30,0 C 51 % 1010,9 hPa 0,0 l/m 0 min 0 min 348 W/m 9,7 km/h (2 Bft) 100,00 %
18.07.2019 13:16 27,4 C 30,0 C 30,0 C 51 % 1011,0 hPa 0,0 l/m 0 min 0 min 297 W/m 12,9 km/h (3 Bft) 100,00 %
18.07.2019 13:18 27,4 C 30,6 C 30,0 C 51 % 1011,0 hPa 0,0 l/m 0 min 0 min 343 W/m 22,5 km/h (4 Bft) 100,00 %
18.07.2019 13:20 27,4 C 29,4 C 28,9 C 51 % 1011,0 hPa 0,0 l/m 0 min 0 min 374 W/m 6,4 km/h (2 Bft) 100,00 %
18.07.2019 13:22 27,4 C 28,3 C 28,3 C 51 % 1011,0 hPa 0,0 l/m 0 min 0 min 332 W/m 12,9 km/h (3 Bft) 100,00 %
18.07.2019 13:24 27,4 C 28,3 C 27,8 C 51 % 1011,0 hPa 0,0 l/m 0 min 0 min 343 W/m 16,1 km/h (3 Bft) 100,00 %
18.07.2019 13:26 27,4 C 30,6 C 29,4 C 51 % 1010,9 hPa 0,0 l/m 0 min 0 min 376 W/m 9,7 km/h (2 Bft) 100,00 %
18.07.2019 13:28 27,4 C 32,8 C 31,7 C 53 % 1010,9 hPa 0,0 l/m 2 min 0 min 800 W/m 6,4 km/h (2 Bft) 100,00 %
18.07.2019 13:30 27,6 C 32,2 C 32,2 C 51 % 1010,9 hPa 0,0 l/m 2 min 0 min 1019 W/m 9,7 km/h (2 Bft) 97,87 %
18.07.2019 13:32 27,6 C 31,1 C 30,6 C 53 % 1010,9 hPa 0,0 l/m 2 min 0 min 977 W/m 9,7 km/h (2 Bft) 97,87 %
18.07.2019 13:34 27,7 C 30,6 C 30,6 C 51 % 1011,0 hPa 0,0 l/m 2 min 0 min 977 W/m 12,9 km/h (3 Bft) 97,87 %
18.07.2019 13:36 27,7 C 32,2 C 31,7 C 51 % 1011,0 hPa 0,0 l/m 2 min 0 min 937 W/m 9,7 km/h (2 Bft) 97,83 %
18.07.2019 13:38 27,8 C 31,7 C 31,7 C 51 % 1011,0 hPa 0,0 l/m 2 min 0 min 850 W/m 16,1 km/h (3 Bft) 97,87 %
18.07.2019 13:40 27,8 C 30,0 C 31,1 C 49 % 1011,0 hPa 0,0 l/m 2 min 0 min 803 W/m 22,5 km/h (4 Bft) 95,74 %
18.07.2019 13:42 27,8 C 28,3 C 29,4 C 49 % 1011,0 hPa 0,0 l/m 2 min 0 min 766 W/m 25,7 km/h (4 Bft) 95,74 %
18.07.2019 13:44 27,7 C 27,2 C 27,8 C 48 % 1011,0 hPa 0,0 l/m 0 min 0 min 407 W/m 25,7 km/h (4 Bft) 97,87 %
18.07.2019 13:46 27,6 C 28,3 C 28,3 C 49 % 1011,1 hPa 0,0 l/m 0 min 0 min 402 W/m 12,9 km/h (3 Bft) 97,83 %
18.07.2019 13:48 27,4 C 27,8 C 28,3 C 48 % 1011,3 hPa 0,0 l/m 0 min 0 min 397 W/m 22,5 km/h (4 Bft) 97,87 %
18.07.2019 13:50 27,3 C 28,9 C 28,9 C 49 % 1011,1 hPa 0,0 l/m 0 min 0 min 397 W/m 16,1 km/h (3 Bft) 95,74 %
18.07.2019 13:52 27,2 C 28,3 C 28,3 C 49 % 1011,2 hPa 0,0 l/m 0 min 0 min 392 W/m 19,3 km/h (3 Bft) 97,87 %
18.07.2019 13:54 27,2 C 28,9 C 27,8 C 49 % 1011,2 hPa 0,0 l/m 2 min 0 min 444 W/m 19,3 km/h (3 Bft) 97,87 %
18.07.2019 13:56 27,1 C 28,3 C 27,8 C 49 % 1011,1 hPa 0,0 l/m 2 min 0 min 519 W/m 19,3 km/h (3 Bft) 93,62 %
18.07.2019 13:58 27,1 C 28,9 C 27,8 C 50 % 1011,1 hPa 0,0 l/m 2 min 0 min 508 W/m 12,9 km/h (3 Bft) 97,83 %
18.07.2019 14:00 27,0 C 28,3 C 27,8 C 49 % 1011,1 hPa 0,0 l/m 2 min 0 min 493 W/m 12,9 km/h (3 Bft) 97,87 %
18.07.2019 14:02 26,9 C 28,3 C 27,8 C 50 % 1011,1 hPa 0,0 l/m 2 min 0 min 477 W/m 12,9 km/h (3 Bft) 97,87 %
18.07.2019 14:04 26,9 C 28,3 C 27,2 C 49 % 1011,1 hPa 0,0 l/m 2 min 0 min 469 W/m 16,1 km/h (3 Bft) 97,87 %
18.07.2019 14:06 26,9 C 28,3 C 27,8 C 49 % 1011,1 hPa 0,0 l/m 2 min 0 min 502 W/m 16,1 km/h (3 Bft) 97,87 %
18.07.2019 14:08 26,8 C 28,9 C 28,9 C 50 % 1011,1 hPa 0,0 l/m 2 min 0 min 831 W/m 22,5 km/h (4 Bft) 95,74 %
18.07.2019 14:10 26,8 C 28,3 C 27,8 C 49 % 1011,2 hPa 0,0 l/m 2 min 0 min 620 W/m 16,1 km/h (3 Bft) 97,83 %
18.07.2019 14:12 26,7 C 27,2 C 27,2 C 50 % 1011,1 hPa 0,0 l/m 2 min 0 min 501 W/m 19,3 km/h (3 Bft) 93,62 %
18.07.2019 14:14 26,7 C 27,2 C 27,2 C 51 % 1011,2 hPa 0,0 l/m 2 min 0 min 415 W/m 16,1 km/h (3 Bft) 97,87 %
18.07.2019 14:16 26,6 C 27,2 C 26,7 C 50 % 1011,2 hPa 0,0 l/m 0 min 0 min 356 W/m 12,9 km/h (3 Bft) 97,87 %
18.07.2019 14:18 26,6 C 26,7 C 26,7 C 51 % 1011,1 hPa 0,0 l/m 0 min 0 min 311 W/m 9,7 km/h (2 Bft) 97,87 %
18.07.2019 14:20 26,5 C 26,1 C 26,1 C 51 % 1011,2 hPa 0,0 l/m 0 min 0 min 284 W/m 16,1 km/h (3 Bft) 95,74 %
18.07.2019 14:22 26,4 C 26,1 C 26,1 C 51 % 1011,1 hPa 0,0 l/m 0 min 0 min 264 W/m 16,1 km/h (3 Bft) 97,83 %
18.07.2019 14:24 26,2 C 25,6 C 25,6 C 51 % 1011,1 hPa 0,0 l/m 0 min 0 min 254 W/m 16,1 km/h (3 Bft) 97,87 %
18.07.2019 14:26 26,1 C 25,0 C 25,0 C 51 % 1011,2 hPa 0,0 l/m 0 min 0 min 238 W/m 16,1 km/h (3 Bft) 97,87 %
18.07.2019 14:28 26,0 C 25,0 C 25,0 C 52 % 1011,1 hPa 0,0 l/m 0 min 0 min 217 W/m 29,0 km/h (5 Bft) 97,87 %
18.07.2019 14:30 25,9 C 25,0 C 25,0 C 52 % 1011,2 hPa 0,0 l/m 0 min 0 min 194 W/m 16,1 km/h (3 Bft) 95,74 %
18.07.2019 14:32 25,8 C 24,4 C 25,0 C 53 % 1011,2 hPa 0,0 l/m 0 min 0 min 169 W/m 29,0 km/h (5 Bft) 100,00 %
18.07.2019 14:34 25,7 C 23,9 C 23,9 C 53 % 1011,3 hPa 0,0 l/m 0 min 2 min 148 W/m 19,3 km/h (3 Bft) 97,83 %
18.07.2019 14:36 25,6 C 23,3 C 22,8 C 55 % 1011,3 hPa 0,0 l/m 0 min 2 min 139 W/m 16,1 km/h (3 Bft) 97,87 %
18.07.2019 14:38 25,4 C 22,8 C 22,2 C 56 % 1011,3 hPa 0,0 l/m 0 min 2 min 139 W/m 16,1 km/h (3 Bft) 93,62 %
18.07.2019 14:40 25,2 C 21,1 C 20,0 C 57 % 1011,3 hPa 0,0 l/m 0 min 2 min 148 W/m 29,0 km/h (5 Bft) 93,62 %
18.07.2019 14:42 25,1 C 20,6 C 20,0 C 58 % 1011,3 hPa 0,0 l/m 0 min 2 min 179 W/m 32,2 km/h (5 Bft) 93,62 %
18.07.2019 14:44 24,8 C 21,1 C 21,1 C 58 % 1011,4 hPa 0,0 l/m 0 min 2 min 206 W/m 25,7 km/h (4 Bft) 93,62 %
18.07.2019 14:46 24,6 C 22,2 C 21,7 C 59 % 1011,3 hPa 0,0 l/m 0 min 0 min 231 W/m 12,9 km/h (3 Bft) 91,30 %
18.07.2019 14:48 24,3 C 22,8 C 22,2 C 60 % 1011,3 hPa 0,0 l/m 0 min 0 min 265 W/m 9,7 km/h (2 Bft) 95,74 %
18.07.2019 14:50 24,2 C 23,3 C 22,8 C 60 % 1011,3 hPa 0,0 l/m 0 min 0 min 298 W/m 16,1 km/h (3 Bft) 95,74 %
18.07.2019 14:52 24,1 C 24,4 C 23,3 C 60 % 1011,3 hPa 0,0 l/m 0 min 0 min 304 W/m 12,9 km/h (3 Bft) 93,62 %
18.07.2019 14:54 24,0 C 25,0 C 23,9 C 61 % 1011,3 hPa 0,0 l/m 0 min 0 min 387 W/m 12,9 km/h (3 Bft) 95,74 %
18.07.2019 14:56 24,0 C 25,6 C 24,4 C 62 % 1011,2 hPa 0,0 l/m 0 min 0 min 343 W/m 9,7 km/h (2 Bft) 93,48 %
18.07.2019 14:58 23,9 C 25,0 C 24,4 C 62 % 1011,2 hPa 0,0 l/m 0 min 0 min 326 W/m 9,7 km/h (2 Bft) 95,74 %
18.07.2019 15:00 23,9 C 25,0 C 24,4 C 61 % 1011,3 hPa 0,0 l/m 0 min 0 min 318 W/m 16,1 km/h (3 Bft) 95,74 %
18.07.2019 15:02 23,9 C 25,0 C 24,4 C 61 % 1011,3 hPa 0,0 l/m 0 min 0 min 307 W/m 12,9 km/h (3 Bft) 95,74 %
18.07.2019 15:04 23,9 C 25,0 C 24,4 C 61 % 1011,3 hPa 0,0 l/m 0 min 0 min 324 W/m 9,7 km/h (2 Bft) 93,62 %
18.07.2019 15:06 23,9 C 25,6 C 24,4 C 61 % 1011,2 hPa 0,0 l/m 0 min 0 min 366 W/m 6,4 km/h (2 Bft) 95,74 %
18.07.2019 15:08 23,9 C 26,1 C 24,4 C 60 % 1011,3 hPa 0,0 l/m 2 min 0 min 410 W/m 16,1 km/h (3 Bft) 95,65 %
18.07.2019 15:10 24,0 C 27,2 C 25,6 C 60 % 1011,3 hPa 0,0 l/m 2 min 0 min 548 W/m 16,1 km/h (3 Bft) 95,74 %
18.07.2019 15:12 24,1 C 28,3 C 26,1 C 60 % 1011,2 hPa 0,0 l/m 2 min 0 min 746 W/m 12,9 km/h (3 Bft) 95,74 %
18.07.2019 15:14 24,2 C 28,3 C 26,1 C 59 % 1011,2 hPa 0,0 l/m 2 min 0 min 649 W/m 16,1 km/h (3 Bft) 95,74 %
18.07.2019 15:16 24,2 C 28,3 C 26,1 C 59 % 1011,2 hPa 0,0 l/m 2 min 0 min 641 W/m 9,7 km/h (2 Bft) 93,62 %
18.07.2019 15:18 24,3 C 27,8 C 25,6 C 59 % 1011,1 hPa 0,0 l/m 2 min 0 min 615 W/m 12,9 km/h (3 Bft) 95,74 %
18.07.2019 15:20 24,4 C 27,2 C 25,6 C 57 % 1011,2 hPa 0,0 l/m 2 min 0 min 398 W/m 16,1 km/h (3 Bft) 95,65 %
18.07.2019 15:22 24,5 C 27,2 C 25,6 C 59 % 1011,2 hPa 0,0 l/m 0 min 0 min 365 W/m 12,9 km/h (3 Bft) 97,87 %
18.07.2019 15:24 24,6 C 26,7 C 25,0 C 58 % 1011,2 hPa 0,0 l/m 0 min 0 min 347 W/m 12,9 km/h (3 Bft) 97,87 %
18.07.2019 15:26 24,6 C 26,1 C 25,0 C 57 % 1011,1 hPa 0,0 l/m 0 min 0 min 319 W/m 12,9 km/h (3 Bft) 97,87 %
18.07.2019 15:28 24,7 C 26,1 C 25,0 C 57 % 1011,2 hPa 0,0 l/m 0 min 0 min 321 W/m 9,7 km/h (2 Bft) 97,87 %
18.07.2019 15:30 24,7 C 26,1 C 25,0 C 57 % 1011,2 hPa 0,0 l/m 0 min 0 min 336 W/m 9,7 km/h (2 Bft) 97,87 %
18.07.2019 15:32 24,8 C 26,7 C 25,0 C 58 % 1011,1 hPa 0,0 l/m 0 min 0 min 362 W/m 6,4 km/h (2 Bft) 100,00 %
18.07.2019 15:34 24,8 C 26,1 C 25,0 C 57 % 1011,2 hPa 0,0 l/m 0 min 0 min 351 W/m 16,1 km/h (3 Bft) 100,00 %
18.07.2019 15:36 24,8 C 26,7 C 25,0 C 58 % 1011,1 hPa 0,0 l/m 0 min 0 min 354 W/m 3,2 km/h (1 Bft) 97,87 %
18.07.2019 15:38 24,9 C 26,7 C 25,6 C 57 % 1011,2 hPa 0,0 l/m 0 min 0 min 352 W/m 16,1 km/h (3 Bft) 100,00 %
18.07.2019 15:40 24,9 C 26,7 C 25,0 C 56 % 1011,1 hPa 0,0 l/m 0 min 0 min 360 W/m 12,9 km/h (3 Bft) 100,00 %
18.07.2019 15:42 24,9 C 26,1 C 25,0 C 56 % 1011,1 hPa 0,0 l/m 0 min 0 min 368 W/m 16,1 km/h (3 Bft) 100,00 %
18.07.2019 15:44 24,9 C 26,7 C 25,0 C 57 % 1011,1 hPa 0,0 l/m 0 min 0 min 366 W/m 9,7 km/h (2 Bft) 100,00 %
18.07.2019 15:46 25,0 C 26,7 C 25,0 C 57 % 1011,1 hPa 0,0 l/m 0 min 0 min 360 W/m 9,7 km/h (2 Bft) 100,00 %
18.07.2019 15:48 25,1 C 26,7 C 25,6 C 57 % 1011,1 hPa 0,0 l/m 0 min 0 min 357 W/m 9,7 km/h (2 Bft) 100,00 %
18.07.2019 15:50 25,1 C 26,7 C 25,6 C 56 % 1011,1 hPa 0,0 l/m 0 min 0 min 364 W/m 9,7 km/h (2 Bft) 100,00 %
18.07.2019 15:52 25,1 C 26,7 C 25,6 C 57 % 1011,1 hPa 0,0 l/m 0 min 0 min 356 W/m 6,4 km/h (2 Bft) 100,00 %
18.07.2019 15:54 25,1 C 27,2 C 25,6 C 57 % 1011,1 hPa 0,0 l/m 0 min 0 min 354 W/m 6,4 km/h (2 Bft) 100,00 %
18.07.2019 15:56 25,2 C 27,2 C 25,6 C 57 % 1011,1 hPa 0,0 l/m 0 min 0 min 350 W/m 9,7 km/h (2 Bft) 100,00 %
18.07.2019 15:58 25,2 C 26,7 C 25,6 C 56 % 1011,1 hPa 0,0 l/m 0 min 0 min 340 W/m 16,1 km/h (3 Bft) 95,74 %
18.07.2019 16:00 25,2 C 26,7 C 25,6 C 55 % 1011,1 hPa 0,0 l/m 0 min 0 min 359 W/m 12,9 km/h (3 Bft) 100,00 %
18.07.2019 16:02 25,3 C 27,2 C 25,6 C 56 % 1011,1 hPa 0,0 l/m 2 min 0 min 367 W/m 9,7 km/h (2 Bft) 97,87 %
18.07.2019 16:04 25,3 C 27,2 C 25,6 C 56 % 1011,0 hPa 0,0 l/m 2 min 0 min 368 W/m 16,1 km/h (3 Bft) 100,00 %
18.07.2019 16:06 25,4 C 26,7 C 25,6 C 55 % 1011,0 hPa 0,0 l/m 2 min 0 min 384 W/m 16,1 km/h (3 Bft) 100,00 %
18.07.2019 16:08 25,4 C 27,2 C 25,6 C 55 % 1011,0 hPa 0,0 l/m 2 min 0 min 416 W/m 12,9 km/h (3 Bft) 100,00 %
18.07.2019 16:10 25,4 C 27,2 C 25,6 C 55 % 1011,0 hPa 0,0 l/m 2 min 0 min 403 W/m 16,1 km/h (3 Bft) 100,00 %
18.07.2019 16:12 25,5 C 27,2 C 26,1 C 55 % 1011,0 hPa 0,0 l/m 2 min 0 min 397 W/m 16,1 km/h (3 Bft) 100,00 %
18.07.2019 16:14 25,5 C 27,2 C 26,1 C 55 % 1011,0 hPa 0,0 l/m 2 min 0 min 395 W/m 12,9 km/h (3 Bft) 100,00 %
18.07.2019 16:16 25,6 C 27,2 C 25,6 C 56 % 1011,0 hPa 0,0 l/m 2 min 0 min 417 W/m 16,1 km/h (3 Bft) 100,00 %
18.07.2019 16:18 25,6 C 26,7 C 25,6 C 54 % 1011,0 hPa 0,0 l/m 2 min 0 min 418 W/m 16,1 km/h (3 Bft) 100,00 %
18.07.2019 16:20 25,6 C 27,2 C 25,6 C 54 % 1010,9 hPa 0,0 l/m 2 min 0 min 415 W/m 12,9 km/h (3 Bft) 100,00 %
18.07.2019 16:22 25,6 C 27,2 C 25,6 C 54 % 1011,0 hPa 0,0 l/m 2 min 0 min 446 W/m 9,7 km/h (2 Bft) 100,00 %
18.07.2019 16:24 25,6 C 27,8 C 25,6 C 55 % 1010,9 hPa 0,0 l/m 2 min 0 min 507 W/m 12,9 km/h (3 Bft) 100,00 %
18.07.2019 16:26 25,7 C 28,3 C 26,1 C 55 % 1010,9 hPa 0,0 l/m 2 min 0 min 561 W/m 9,7 km/h (2 Bft) 97,87 %
18.07.2019 16:28 25,7 C 28,9 C 26,7 C 55 % 1010,9 hPa 0,0 l/m 2 min 0 min 580 W/m 12,9 km/h (3 Bft) 100,00 %
18.07.2019 16:30 25,8 C 30,0 C 27,2 C 55 % 1010,9 hPa 0,0 l/m 2 min 0 min 631 W/m 9,7 km/h (2 Bft) 100,00 %
18.07.2019 16:32 25,9 C 30,6 C 27,8 C 56 % 1010,9 hPa 0,0 l/m 2 min 0 min 718 W/m 9,7 km/h (2 Bft) 100,00 %
18.07.2019 16:34 26,0 C 30,0 C 27,8 C 55 % 1010,9 hPa 0,0 l/m 2 min 0 min 665 W/m 9,7 km/h (2 Bft) 100,00 %
18.07.2019 16:36 26,1 C 30,6 C 27,8 C 54 % 1010,9 hPa 0,0 l/m 2 min 0 min 698 W/m 9,7 km/h (2 Bft) 100,00 %
18.07.2019 16:38 26,2 C 30,0 C 27,8 C 55 % 1010,9 hPa 0,0 l/m 2 min 0 min 626 W/m 9,7 km/h (2 Bft) 100,00 %
18.07.2019 16:40 26,2 C 29,4 C 27,2 C 54 % 1011,0 hPa 0,0 l/m 2 min 0 min 634 W/m 12,9 km/h (3 Bft) 100,00 %
18.07.2019 16:42 26,3 C 28,9 C 27,2 C 55 % 1010,9 hPa 0,0 l/m 2 min 0 min 639 W/m 9,7 km/h (2 Bft) 100,00 %
18.07.2019 16:44 26,4 C 28,9 C 26,7 C 54 % 1010,8 hPa 0,0 l/m 2 min 0 min 541 W/m 9,7 km/h (2 Bft) 100,00 %
18.07.2019 16:46 26,4 C 28,3 C 26,1 C 54 % 1010,9 hPa 0,0 l/m 2 min 0 min 414 W/m 12,9 km/h (3 Bft) 97,87 %
18.07.2019 16:48 26,4 C 27,8 C 26,1 C 54 % 1010,9 hPa 0,0 l/m 2 min 0 min 396 W/m 9,7 km/h (2 Bft) 97,87 %
18.07.2019 16:50 26,4 C 28,3 C 26,1 C 55 % 1010,9 hPa 0,0 l/m 2 min 0 min 392 W/m 12,9 km/h (3 Bft) 97,87 %
18.07.2019 16:52 26,4 C 27,2 C 25,6 C 55 % 1010,9 hPa 0,0 l/m 0 min 0 min 320 W/m 12,9 km/h (3 Bft) 97,83 %
18.07.2019 16:54 26,4 C 27,2 C 25,6 C 55 % 1010,9 hPa 0,0 l/m 2 min 0 min 326 W/m 12,9 km/h (3 Bft) 97,87 %
18.07.2019 16:56 26,4 C 27,2 C 25,6 C 55 % 1010,8 hPa 0,0 l/m 0 min 0 min 315 W/m 12,9 km/h (3 Bft) 97,87 %
18.07.2019 16:58 26,4 C 27,2 C 25,6 C 56 % 1010,8 hPa 0,0 l/m 2 min 0 min 319 W/m 9,7 km/h (2 Bft) 97,87 %
18.07.2019 17:00 26,3 C 27,2 C 25,6 C 55 % 1010,9 hPa 0,0 l/m 2 min 0 min 344 W/m 16,1 km/h (3 Bft) 97,87 %
18.07.2019 17:02 26,3 C 26,7 C 25,6 C 55 % 1010,8 hPa 0,0 l/m 2 min 0 min 347 W/m 12,9 km/h (3 Bft) 95,74 %
18.07.2019 17:04 26,3 C 26,7 C 25,6 C 55 % 1010,8 hPa 0,0 l/m 0 min 0 min 308 W/m 16,1 km/h (3 Bft) 97,83 %
18.07.2019 17:06 26,2 C 26,7 C 25,6 C 55 % 1010,8 hPa 0,0 l/m 2 min 0 min 351 W/m 22,5 km/h (4 Bft) 97,87 %
18.07.2019 17:08 26,2 C 26,7 C 25,6 C 56 % 1010,8 hPa 0,0 l/m 2 min 0 min 324 W/m 12,9 km/h (3 Bft) 95,74 %
18.07.2019 17:10 26,2 C 26,7 C 25,6 C 56 % 1010,8 hPa 0,0 l/m 0 min 0 min 290 W/m 19,3 km/h (3 Bft) 95,74 %
18.07.2019 17:12 26,1 C 26,1 C 25,6 C 56 % 1010,8 hPa 0,0 l/m 0 min 0 min 259 W/m 9,7 km/h (2 Bft) 95,74 %
18.07.2019 17:14 26,1 C 26,1 C 25,6 C 56 % 1010,8 hPa 0,0 l/m 0 min 0 min 249 W/m 12,9 km/h (3 Bft) 95,74 %
18.07.2019 17:16 26,0 C 26,1 C 25,6 C 56 % 1010,8 hPa 0,0 l/m 0 min 0 min 236 W/m 6,4 km/h (2 Bft) 95,12 %
18.07.2019 17:18 26,0 C 26,1 C 25,0 C 56 % 1010,8 hPa 0,0 l/m 0 min 0 min 221 W/m 9,7 km/h (2 Bft) 95,74 %
18.07.2019 17:20 25,9 C 25,6 C 25,0 C 57 % 1010,7 hPa 0,0 l/m 0 min 0 min 217 W/m 9,7 km/h (2 Bft) 95,74 %
18.07.2019 17:22 25,9 C 25,6 C 25,0 C 56 % 1010,8 hPa 0,0 l/m 0 min 0 min 220 W/m 16,1 km/h (3 Bft) 95,74 %
18.07.2019 17:24 25,8 C 25,6 C 25,0 C 57 % 1010,7 hPa 0,0 l/m 0 min 0 min 225 W/m 12,9 km/h (3 Bft) 93,62 %
18.07.2019 17:26 25,8 C 25,6 C 25,0 C 58 % 1010,7 hPa 0,0 l/m 0 min 0 min 225 W/m 9,7 km/h (2 Bft) 95,74 %
18.07.2019 17:28 25,8 C 25,6 C 25,0 C 58 % 1010,7 hPa 0,0 l/m 0 min 0 min 208 W/m 16,1 km/h (3 Bft) 93,48 %
18.07.2019 17:30 25,7 C 25,6 C 25,0 C 57 % 1010,7 hPa 0,0 l/m 0 min 0 min 191 W/m 6,4 km/h (2 Bft) 93,62 %
18.07.2019 17:32 25,7 C 25,0 C 25,0 C 57 % 1010,8 hPa 0,0 l/m 0 min 0 min 182 W/m 9,7 km/h (2 Bft) 91,49 %
18.07.2019 17:34 25,6 C 25,6 C 24,4 C 57 % 1010,8 hPa 0,0 l/m 0 min 0 min 178 W/m 6,4 km/h (2 Bft) 92,16 %
18.07.2019 17:36 25,6 C 25,6 C 24,4 C 57 % 1010,8 hPa 0,0 l/m 0 min 0 min 177 W/m 6,4 km/h (2 Bft) 91,49 %
18.07.2019 17:38 25,6 C 25,6 C 24,4 C 58 % 1010,8 hPa 0,0 l/m 0 min 0 min 177 W/m 3,2 km/h (1 Bft) 95,74 %
18.07.2019 17:40 25,6 C 25,6 C 24,4 C 58 % 1010,8 hPa 0,0 l/m 0 min 0 min 181 W/m 6,4 km/h (2 Bft) 93,48 %
18.07.2019 17:42 25,5 C 25,6 C 24,4 C 57 % 1010,8 hPa 0,0 l/m 0 min 0 min 181 W/m 6,4 km/h (2 Bft) 97,87 %
18.07.2019 17:44 25,5 C 25,6 C 24,4 C 57 % 1010,8 hPa 0,0 l/m 0 min 0 min 181 W/m 9,7 km/h (2 Bft) 95,74 %
18.07.2019 17:46 25,5 C 25,0 C 24,4 C 57 % 1010,8 hPa 0,0 l/m 0 min 0 min 173 W/m 6,4 km/h (2 Bft) 91,49 %
18.07.2019 17:48 25,4 C 25,0 C 24,4 C 57 % 1010,9 hPa 0,0 l/m 0 min 0 min 159 W/m 9,7 km/h (2 Bft) 95,74 %
18.07.2019 17:50 25,4 C 25,0 C 24,4 C 57 % 1010,8 hPa 0,0 l/m 0 min 0 min 143 W/m 6,4 km/h (2 Bft) 97,87 %
18.07.2019 17:52 25,4 C 25,0 C 24,4 C 57 % 1010,8 hPa 0,0 l/m 0 min 0 min 132 W/m 9,7 km/h (2 Bft) 95,65 %
18.07.2019 17:54 25,3 C 24,4 C 24,4 C 57 % 1010,9 hPa 0,0 l/m 0 min 0 min 123 W/m 12,9 km/h (3 Bft) 97,87 %
18.07.2019 17:56 25,3 C 24,4 C 24,4 C 57 % 1010,9 hPa 0,0 l/m 0 min 0 min 129 W/m 9,7 km/h (2 Bft) 93,62 %
18.07.2019 17:58 25,3 C 24,4 C 23,9 C 56 % 1010,9 hPa 0,0 l/m 0 min 0 min 136 W/m 9,7 km/h (2 Bft) 97,87 %
18.07.2019 18:00 25,2 C 24,4 C 23,9 C 58 % 1010,9 hPa 0,0 l/m 0 min 0 min 143 W/m 9,7 km/h (2 Bft) 95,74 %
18.07.2019 18:02 25,1 C 24,4 C 23,9 C 57 % 1010,9 hPa 0,0 l/m 0 min 0 min 149 W/m 9,7 km/h (2 Bft) 93,48 %
18.07.2019 18:04 25,1 C 24,4 C 23,9 C 57 % 1010,9 hPa 0,0 l/m 0 min 0 min 153 W/m 6,4 km/h (2 Bft) 95,74 %
18.07.2019 18:08 25,1 C 24,4 C 23,9 C 58 % 1011,0 hPa 0,0 l/m 0 min 0 min 147 W/m 12,9 km/h (3 Bft) 97,87 %
18.07.2019 18:10 25,1 C 24,4 C 23,9 C 57 % 1011,0 hPa 0,0 l/m 0 min 0 min 141 W/m 9,7 km/h (2 Bft) 97,87 %
18.07.2019 18:12 25,0 C 24,4 C 23,9 C 57 % 1011,0 hPa 0,0 l/m 0 min 0 min 139 W/m 12,9 km/h (3 Bft) 97,87 %
18.07.2019 18:14 24,9 C 24,4 C 23,9 C 57 % 1011,0 hPa 0,0 l/m 0 min 0 min 149 W/m 16,1 km/h (3 Bft) 97,83 %
18.07.2019 18:16 24,9 C 24,4 C 23,9 C 57 % 1011,0 hPa 0,0 l/m 0 min 0 min 166 W/m 16,1 km/h (3 Bft) 97,87 %
18.07.2019 18:18 24,9 C 24,4 C 23,9 C 57 % 1010,9 hPa 0,0 l/m 0 min 0 min 182 W/m 9,7 km/h (2 Bft) 97,37 %
18.07.2019 18:20 24,8 C 24,4 C 23,9 C 57 % 1011,0 hPa 0,0 l/m 0 min 0 min 185 W/m 12,9 km/h (3 Bft) 97,87 %
18.07.2019 18:22 24,8 C 24,4 C 23,9 C 57 % 1011,0 hPa 0,0 l/m 0 min 0 min 187 W/m 12,9 km/h (3 Bft) 95,74 %
18.07.2019 18:24 24,8 C 25,0 C 23,9 C 58 % 1011,0 hPa 0,0 l/m 0 min 0 min 200 W/m 9,7 km/h (2 Bft) 97,87 %
18.07.2019 18:26 24,8 C 25,0 C 23,9 C 58 % 1011,0 hPa 0,0 l/m 0 min 0 min 205 W/m 6,4 km/h (2 Bft) 97,87 %
18.07.2019 18:28 24,8 C 25,0 C 23,9 C 58 % 1011,0 hPa 0,0 l/m 0 min 0 min 188 W/m 9,7 km/h (2 Bft) 97,87 %
18.07.2019 18:30 24,7 C 24,4 C 23,9 C 57 % 1011,0 hPa 0,0 l/m 0 min 0 min 168 W/m 9,7 km/h (2 Bft) 97,83 %
18.07.2019 18:32 24,7 C 24,4 C 23,9 C 58 % 1011,0 hPa 0,0 l/m 0 min 0 min 146 W/m 12,9 km/h (3 Bft) 97,87 %
18.07.2019 18:34 24,7 C 24,4 C 23,9 C 57 % 1011,1 hPa 0,0 l/m 0 min 0 min 145 W/m 9,7 km/h (2 Bft) 97,87 %
18.07.2019 18:36 24,7 C 24,4 C 23,9 C 57 % 1011,0 hPa 0,0 l/m 0 min 0 min 156 W/m 9,7 km/h (2 Bft) 97,87 %
18.07.2019 18:38 24,7 C 24,4 C 23,9 C 57 % 1011,0 hPa 0,0 l/m 0 min 0 min 168 W/m 12,9 km/h (3 Bft) 95,74 %
18.07.2019 18:40 24,6 C 24,4 C 23,9 C 56 % 1011,0 hPa 0,0 l/m 0 min 0 min 162 W/m 16,1 km/h (3 Bft) 95,65 %
18.07.2019 18:42 24,6 C 23,9 C 23,9 C 56 % 1011,0 hPa 0,0 l/m 0 min 0 min 151 W/m 6,4 km/h (2 Bft) 97,87 %
18.07.2019 18:44 24,6 C 23,9 C 23,9 C 56 % 1011,1 hPa 0,0 l/m 0 min 0 min 138 W/m 9,7 km/h (2 Bft) 97,87 %
18.07.2019 18:46 24,5 C 23,9 C 23,3 C 55 % 1011,1 hPa 0,0 l/m 0 min 0 min 133 W/m 12,9 km/h (3 Bft) 100,00 %
18.07.2019 18:48 24,5 C 23,9 C 23,3 C 55 % 1011,0 hPa 0,0 l/m 0 min 0 min 135 W/m 9,7 km/h (2 Bft) 100,00 %
18.07.2019 18:50 24,4 C 23,9 C 23,3 C 54 % 1011,1 hPa 0,0 l/m 0 min 0 min 130 W/m 16,1 km/h (3 Bft) 100,00 %
18.07.2019 18:52 24,4 C 23,9 C 23,3 C 54 % 1011,1 hPa 0,0 l/m 0 min 0 min 113 W/m 9,7 km/h (2 Bft) 100,00 %
18.07.2019 18:54 24,3 C 23,3 C 23,3 C 54 % 1011,1 hPa 0,0 l/m 0 min 0 min 97 W/m 12,9 km/h (3 Bft) 100,00 %
18.07.2019 18:56 24,3 C 23,3 C 23,3 C 54 % 1011,1 hPa 0,0 l/m 0 min 0 min 90 W/m 6,4 km/h (2 Bft) 100,00 %
18.07.2019 18:58 24,2 C 23,3 C 23,3 C 54 % 1011,2 hPa 0,0 l/m 0 min 0 min 88 W/m 9,7 km/h (2 Bft) 100,00 %
18.07.2019 19:00 24,2 C 23,3 C 22,8 C 54 % 1011,1 hPa 0,0 l/m 0 min 0 min 86 W/m 9,7 km/h (2 Bft) 100,00 %
18.07.2019 19:02 24,2 C 23,3 C 22,8 C 55 % 1011,2 hPa 0,0 l/m 0 min 0 min 86 W/m 12,9 km/h (3 Bft) 97,87 %
18.07.2019 19:04 24,1 C 23,3 C 22,8 C 54 % 1011,2 hPa 0,0 l/m 0 min 0 min 91 W/m 9,7 km/h (2 Bft) 100,00 %
18.07.2019 19:06 24,1 C 23,3 C 22,8 C 54 % 1011,2 hPa 0,0 l/m 0 min 0 min 97 W/m 6,4 km/h (2 Bft) 100,00 %
18.07.2019 19:08 24,1 C 23,3 C 22,8 C 56 % 1011,2 hPa 0,0 l/m 0 min 0 min 99 W/m 6,4 km/h (2 Bft) 100,00 %
18.07.2019 19:10 24,1 C 23,3 C 22,8 C 55 % 1011,2 hPa 0,0 l/m 0 min 0 min 98 W/m 6,4 km/h (2 Bft) 100,00 %
18.07.2019 19:12 24,0 C 23,3 C 22,8 C 55 % 1011,2 hPa 0,0 l/m 0 min 0 min 94 W/m 12,9 km/h (3 Bft) 100,00 %
18.07.2019 19:14 23,9 C 23,3 C 22,8 C 54 % 1011,3 hPa 0,0 l/m 0 min 0 min 100 W/m 9,7 km/h (2 Bft) 100,00 %
18.07.2019 19:16 23,9 C 23,3 C 22,8 C 54 % 1011,3 hPa 0,0 l/m 0 min 0 min 108 W/m 9,7 km/h (2 Bft) 100,00 %
18.07.2019 19:18 23,9 C 23,3 C 22,8 C 55 % 1011,3 hPa 0,0 l/m 0 min 0 min 108 W/m 6,4 km/h (2 Bft) 100,00 %
18.07.2019 19:20 23,9 C 23,3 C 22,8 C 55 % 1011,2 hPa 0,0 l/m 0 min 0 min 102 W/m 6,4 km/h (2 Bft) 100,00 %
18.07.2019 19:22 23,9 C 23,3 C 22,8 C 55 % 1011,2 hPa 0,0 l/m 0 min 0 min 94 W/m 9,7 km/h (2 Bft) 97,87 %
18.07.2019 19:24 23,9 C 23,3 C 22,8 C 56 % 1011,2 hPa 0,0 l/m 0 min 0 min 85 W/m 6,4 km/h (2 Bft) 100,00 %
18.07.2019 19:26 23,8 C 23,3 C 22,8 C 56 % 1011,2 hPa 0,0 l/m 0 min 0 min 75 W/m 6,4 km/h (2 Bft) 100,00 %
18.07.2019 19:28 23,8 C 23,3 C 22,8 C 56 % 1011,2 hPa 0,0 l/m 0 min 0 min 66 W/m 9,7 km/h (2 Bft) 97,83 %
18.07.2019 19:30 23,8 C 22,8 C 22,8 C 56 % 1011,2 hPa 0,0 l/m 0 min 0 min 58 W/m 9,7 km/h (2 Bft) 100,00 %
18.07.2019 19:32 23,8 C 22,8 C 22,8 C 57 % 1011,2 hPa 0,0 l/m 0 min 0 min 54 W/m 6,4 km/h (2 Bft) 97,87 %
18.07.2019 19:34 23,8 C 22,8 C 22,2 C 57 % 1011,2 hPa 0,0 l/m 0 min 0 min 50 W/m 6,4 km/h (2 Bft) 100,00 %
18.07.2019 19:36 23,8 C 22,8 C 22,2 C 57 % 1011,2 hPa 0,0 l/m 0 min 0 min 46 W/m 6,4 km/h (2 Bft) 100,00 %
18.07.2019 19:38 23,7 C 22,8 C 22,2 C 57 % 1011,2 hPa 0,0 l/m 0 min 0 min 42 W/m 6,4 km/h (2 Bft) 100,00 %
18.07.2019 19:40 23,7 C 22,2 C 22,2 C 58 % 1011,2 hPa 0,0 l/m 0 min 0 min 40 W/m 6,4 km/h (2 Bft) 100,00 %
18.07.2019 19:42 23,7 C 22,2 C 22,2 C 58 % 1011,2 hPa 0,0 l/m 0 min 0 min 40 W/m 6,4 km/h (2 Bft) 100,00 %
18.07.2019 19:44 23,7 C 22,2 C 22,2 C 58 % 1011,2 hPa 0,0 l/m 0 min 0 min 41 W/m 3,2 km/h (1 Bft) 100,00 %
18.07.2019 19:46 23,6 C 22,2 C 22,2 C 58 % 1011,2 hPa 0,0 l/m 0 min 0 min 42 W/m 3,2 km/h (1 Bft) 93,75 %
18.07.2019 19:48 23,6 C 22,2 C 22,2 C 58 % 1011,2 hPa 0,0 l/m 0 min 0 min 42 W/m 6,4 km/h (2 Bft) 97,87 %
18.07.2019 19:50 23,6 C 22,2 C 22,2 C 58 % 1011,2 hPa 0,0 l/m 0 min 0 min 40 W/m 6,4 km/h (2 Bft) 95,65 %
18.07.2019 19:52 23,5 C 22,2 C 22,2 C 58 % 1011,2 hPa 0,0 l/m 0 min 0 min 39 W/m 6,4 km/h (2 Bft) 97,87 %
18.07.2019 19:54 23,4 C 22,2 C 22,2 C 59 % 1011,3 hPa 0,0 l/m 0 min 0 min 39 W/m 6,4 km/h (2 Bft) 97,87 %
18.07.2019 19:56 23,4 C 22,2 C 22,2 C 59 % 1011,2 hPa 0,0 l/m 0 min 0 min 40 W/m 6,4 km/h (2 Bft) 97,87 %
18.07.2019 19:58 23,4 C 22,2 C 21,7 C 60 % 1011,3 hPa 0,0 l/m 0 min 0 min 41 W/m 3,2 km/h (1 Bft) 95,74 %
18.07.2019 20:00 23,3 C 22,2 C 22,2 C 59 % 1011,2 hPa 0,0 l/m 0 min 0 min 42 W/m 9,7 km/h (2 Bft) 93,62 %
18.07.2019 20:02 23,3 C 22,2 C 21,7 C 60 % 1011,3 hPa 0,0 l/m 0 min 0 min 40 W/m 6,4 km/h (2 Bft) 91,30 %
18.07.2019 20:04 23,3 C 22,2 C 21,7 C 60 % 1011,2 hPa 0,0 l/m 0 min 0 min 38 W/m 6,4 km/h (2 Bft) 93,62 %
18.07.2019 20:06 23,2 C 21,7 C 21,7 C 61 % 1011,3 hPa 0,0 l/m 0 min 0 min 34 W/m 6,4 km/h (2 Bft) 95,74 %
18.07.2019 20:08 23,2 C 21,7 C 21,7 C 61 % 1011,2 hPa 0,0 l/m 0 min 0 min 31 W/m 6,4 km/h (2 Bft) 95,74 %
18.07.2019 20:10 23,2 C 21,7 C 21,7 C 61 % 1011,3 hPa 0,0 l/m 0 min 0 min 28 W/m 3,2 km/h (1 Bft) 95,74 %
18.07.2019 20:12 23,1 C 21,7 C 21,7 C 61 % 1011,2 hPa 0,0 l/m 0 min 0 min 28 W/m 3,2 km/h (1 Bft) 95,65 %
18.07.2019 20:14 23,1 C 21,7 C 21,7 C 61 % 1011,3 hPa 0,0 l/m 0 min 0 min 28 W/m 6,4 km/h (2 Bft) 95,74 %
18.07.2019 20:16 23,1 C 21,7 C 21,7 C 61 % 1011,2 hPa 0,0 l/m 0 min 0 min 29 W/m 6,4 km/h (2 Bft) 95,74 %
18.07.2019 20:18 23,0 C 21,7 C 21,7 C 61 % 1011,2 hPa 0,0 l/m 0 min 0 min 30 W/m 3,2 km/h (1 Bft) 95,74 %
18.07.2019 20:20 22,9 C 21,7 C 21,7 C 62 % 1011,2 hPa 0,0 l/m 0 min 0 min 32 W/m 9,7 km/h (2 Bft) 93,62 %
18.07.2019 20:22 22,9 C 21,7 C 21,7 C 61 % 1011,2 hPa 0,0 l/m 0 min 0 min 32 W/m 6,4 km/h (2 Bft) 95,74 %
18.07.2019 20:24 22,9 C 21,7 C 21,7 C 62 % 1011,2 hPa 0,0 l/m 0 min 0 min 32 W/m 3,2 km/h (1 Bft) 95,65 %
18.07.2019 20:26 22,8 C 21,7 C 21,7 C 62 % 1011,2 hPa 0,0 l/m 0 min 0 min 32 W/m 6,4 km/h (2 Bft) 95,74 %
18.07.2019 20:28 22,8 C 21,7 C 21,7 C 62 % 1011,2 hPa 0,0 l/m 0 min 0 min 35 W/m 6,4 km/h (2 Bft) 95,74 %
18.07.2019 20:30 22,8 C 21,7 C 21,1 C 62 % 1011,2 hPa 0,0 l/m 0 min 0 min 42 W/m 3,2 km/h (1 Bft) 95,74 %
18.07.2019 20:32 22,8 C 21,7 C 21,1 C 62 % 1011,2 hPa 0,0 l/m 0 min 0 min 54 W/m 6,4 km/h (2 Bft) 97,87 %
18.07.2019 20:34 22,7 C 21,7 C 21,7 C 62 % 1011,3 hPa 0,0 l/m 0 min 0 min 68 W/m 6,4 km/h (2 Bft) 95,74 %
18.07.2019 20:36 22,7 C 22,2 C 21,7 C 62 % 1011,3 hPa 0,0 l/m 2 min 0 min 75 W/m 6,4 km/h (2 Bft) 97,83 %
18.07.2019 20:38 22,7 C 22,2 C 21,7 C 62 % 1011,3 hPa 0,0 l/m 2 min 0 min 73 W/m 6,4 km/h (2 Bft) 95,74 %
18.07.2019 20:40 22,7 C 22,2 C 21,7 C 63 % 1011,3 hPa 0,0 l/m 0 min 0 min 61 W/m 3,2 km/h (1 Bft) 97,87 %
18.07.2019 20:42 22,7 C 22,2 C 21,7 C 63 % 1011,2 hPa 0,0 l/m 0 min 0 min 46 W/m 6,4 km/h (2 Bft) 95,74 %
18.07.2019 20:44 22,7 C 21,7 C 21,7 C 63 % 1011,3 hPa 0,0 l/m 0 min 0 min 32 W/m 3,2 km/h (1 Bft) 95,74 %
18.07.2019 20:46 22,7 C 21,7 C 21,7 C 63 % 1011,3 hPa 0,0 l/m 0 min 0 min 21 W/m 6,4 km/h (2 Bft) 95,74 %
18.07.2019 20:48 22,7 C 21,7 C 21,1 C 63 % 1011,3 hPa 0,0 l/m 0 min 0 min 15 W/m 3,2 km/h (1 Bft) 97,83 %
18.07.2019 20:50 22,7 C 21,7 C 21,1 C 63 % 1011,3 hPa 0,0 l/m 0 min 0 min 12 W/m 3,2 km/h (1 Bft) 95,74 %
18.07.2019 20:52 22,6 C 21,1 C 21,1 C 63 % 1011,3 hPa 0,0 l/m 0 min 0 min 12 W/m 3,2 km/h (1 Bft) 95,74 %
18.07.2019 20:54 22,6 C 21,1 C 21,1 C 64 % 1011,3 hPa 0,0 l/m 0 min 0 min 12 W/m 0,0 km/h (0 Bft) 95,74 %
18.07.2019 20:56 22,6 C 21,1 C 20,6 C 64 % 1011,3 hPa 0,0 l/m 0 min 0 min 12 W/m 0,0 km/h (0 Bft) 100,00 %
18.07.2019 20:58 22,6 C 21,1 C 20,6 C 64 % 1011,3 hPa 0,0 l/m 0 min 0 min 12 W/m 3,2 km/h (1 Bft) 97,87 %
18.07.2019 21:00 22,6 C 21,1 C 20,6 C 64 % 1011,3 hPa 0,0 l/m 0 min 0 min 12 W/m 0,0 km/h (0 Bft) 95,65 %
18.07.2019 21:02 22,6 C 21,1 C 20,6 C 64 % 1011,3 hPa 0,0 l/m 0 min 0 min 11 W/m 3,2 km/h (1 Bft) 97,87 %
18.07.2019 21:04 22,5 C 21,1 C 20,6 C 64 % 1011,3 hPa 0,0 l/m 0 min 0 min 9 W/m 3,2 km/h (1 Bft) 97,87 %
18.07.2019 21:06 22,5 C 21,1 C 20,6 C 65 % 1011,4 hPa 0,0 l/m 0 min 0 min 9 W/m 3,2 km/h (1 Bft) 97,87 %
18.07.2019 21:08 22,5 C 21,1 C 20,0 C 65 % 1011,4 hPa 0,0 l/m 0 min 2 min 8 W/m 0,0 km/h (0 Bft) 97,87 %
18.07.2019 21:10 22,4 C 20,6 C 19,4 C 66 % 1011,4 hPa 0,0 l/m 0 min 0 min 7 W/m 3,2 km/h (1 Bft) 95,74 %
18.07.2019 21:12 22,4 C 20,6 C 19,4 C 67 % 1011,4 hPa 0,0 l/m 0 min 0 min 6 W/m 3,2 km/h (1 Bft) 95,65 %
18.07.2019 21:14 22,4 C 20,6 C 19,4 C 67 % 1011,4 hPa 0,0 l/m 0 min 0 min 5 W/m 3,2 km/h (1 Bft) 97,87 %
18.07.2019 21:16 22,4 C 20,6 C 19,4 C 67 % 1011,5 hPa 0,0 l/m 0 min 0 min 5 W/m 3,2 km/h (1 Bft) 97,87 %
18.07.2019 21:18 22,4 C 20,6 C 19,4 C 66 % 1011,4 hPa 0,0 l/m 0 min 0 min 5 W/m 3,2 km/h (1 Bft) 97,87 %
18.07.2019 21:20 22,3 C 20,6 C 20,0 C 65 % 1011,3 hPa 0,0 l/m 0 min 0 min 5 W/m 9,7 km/h (2 Bft) 97,87 %
18.07.2019 21:22 22,3 C 20,6 C 20,0 C 65 % 1011,3 hPa 0,0 l/m 0 min 0 min 5 W/m 6,4 km/h (2 Bft) 95,74 %
18.07.2019 21:24 22,2 C 20,6 C 20,0 C 65 % 1011,4 hPa 0,0 l/m 0 min 0 min 3 W/m 3,2 km/h (1 Bft) 97,83 %
18.07.2019 21:26 22,2 C 20,6 C 20,0 C 65 % 1011,3 hPa 0,0 l/m 0 min 0 min 0 W/m 6,4 km/h (2 Bft) 95,56 %
18.07.2019 21:28 22,2 C 20,6 C 20,0 C 65 % 1011,4 hPa 0,0 l/m 0 min 0 min 0 W/m 0,0 km/h (0 Bft) 95,74 %
18.07.2019 21:30 22,2 C 20,6 C 20,0 C 65 % 1011,4 hPa 0,0 l/m 0 min 0 min 0 W/m 3,2 km/h (1 Bft) 97,87 %
18.07.2019 21:32 22,1 C 20,6 C 20,0 C 65 % 1011,4 hPa 0,0 l/m 0 min 0 min 0 W/m 3,2 km/h (1 Bft) 97,87 %
18.07.2019 21:34 22,1 C 20,6 C 20,0 C 66 % 1011,5 hPa 0,0 l/m 0 min 0 min 0 W/m 3,2 km/h (1 Bft) 97,87 %
18.07.2019 21:36 22,1 C 20,6 C 20,0 C 66 % 1011,6 hPa 0,0 l/m 0 min 0 min 0 W/m 3,2 km/h (1 Bft) 97,83 %
18.07.2019 21:38 22,1 C 20,6 C 19,4 C 66 % 1011,6 hPa 0,0 l/m 0 min 0 min 0 W/m 3,2 km/h (1 Bft) 97,87 %
18.07.2019 21:40 22,1 C 20,6 C 19,4 C 66 % 1011,6 hPa 0,0 l/m 0 min 0 min 0 W/m 3,2 km/h (1 Bft) 97,87 %
18.07.2019 21:42 22,0 C 20,6 C 19,4 C 66 % 1011,6 hPa 0,0 l/m 0 min 0 min 0 W/m 3,2 km/h (1 Bft) 95,74 %
18.07.2019 21:44 22,0 C 20,6 C 19,4 C 66 % 1011,7 hPa 0,0 l/m 0 min 0 min 0 W/m 0,0 km/h (0 Bft) 97,87 %
18.07.2019 21:46 22,0 C 20,6 C 18,9 C 66 % 1011,7 hPa 0,0 l/m 0 min 0 min 0 W/m 0,0 km/h (0 Bft) 97,83 %
18.07.2019 21:48 21,9 C 20,6 C 18,9 C 67 % 1011,7 hPa 0,0 l/m 0 min 0 min 0 W/m 3,2 km/h (1 Bft) 97,87 %
18.07.2019 21:50 21,9 C 20,6 C 18,9 C 67 % 1011,8 hPa 0,0 l/m 0 min 0 min 0 W/m 0,0 km/h (0 Bft) 97,87 %
18.07.2019 21:52 21,9 C 20,0 C 18,9 C 67 % 1011,8 hPa 0,0 l/m 0 min 0 min 0 W/m 0,0 km/h (0 Bft) 93,62 %
18.07.2019 21:54 21,9 C 20,6 C 18,9 C 67 % 1011,8 hPa 0,0 l/m 0 min 0 min 0 W/m 3,2 km/h (1 Bft) 97,87 %
18.07.2019 21:56 21,8 C 20,6 C 19,4 C 66 % 1011,8 hPa 0,0 l/m 0 min 0 min 0 W/m 3,2 km/h (1 Bft) 97,87 %
18.07.2019 21:58 21,8 C 20,6 C 18,9 C 66 % 1011,8 hPa 0,0 l/m 0 min 0 min 0 W/m 3,2 km/h (1 Bft) 100,00 %
18.07.2019 22:00 21,8 C 20,6 C 18,9 C 66 % 1011,8 hPa 0,0 l/m 0 min 0 min 0 W/m 3,2 km/h (1 Bft) 100,00 %
18.07.2019 22:02 21,8 C 20,6 C 18,9 C 66 % 1011,8 hPa 0,0 l/m 0 min 0 min 0 W/m 3,2 km/h (1 Bft) 100,00 %
18.07.2019 22:04 21,8 C 20,6 C 19,4 C 67 % 1011,9 hPa 0,0 l/m 0 min 0 min 0 W/m 3,2 km/h (1 Bft) 100,00 %
18.07.2019 22:06 21,8 C 20,6 C 19,4 C 67 % 1011,9 hPa 0,0 l/m 0 min 0 min 0 W/m 3,2 km/h (1 Bft) 100,00 %
18.07.2019 22:08 21,7 C 20,6 C 19,4 C 67 % 1011,9 hPa 0,0 l/m 0 min 0 min 0 W/m 3,2 km/h (1 Bft) 100,00 %
18.07.2019 22:10 21,7 C 20,6 C 19,4 C 68 % 1011,9 hPa 0,0 l/m 0 min 0 min 0 W/m 3,2 km/h (1 Bft) 97,83 %
18.07.2019 22:12 21,7 C 20,6 C 19,4 C 67 % 1012,0 hPa 0,0 l/m 0 min 0 min 0 W/m 6,4 km/h (2 Bft) 97,92 %
18.07.2019 22:14 21,7 C 20,6 C 20,0 C 67 % 1012,1 hPa 0,0 l/m 0 min 0 min 0 W/m 6,4 km/h (2 Bft) 100,00 %
18.07.2019 22:16 21,7 C 20,6 C 20,0 C 67 % 1012,1 hPa 0,0 l/m 0 min 0 min 0 W/m 3,2 km/h (1 Bft) 100,00 %
18.07.2019 22:18 21,6 C 20,6 C 20,0 C 68 % 1012,2 hPa 0,0 l/m 0 min 0 min 0 W/m 3,2 km/h (1 Bft) 100,00 %
18.07.2019 22:20 21,6 C 20,6 C 20,0 C 68 % 1012,2 hPa 0,0 l/m 0 min 0 min 0 W/m 9,7 km/h (2 Bft) 97,83 %
18.07.2019 22:22 21,6 C 20,6 C 20,0 C 68 % 1012,2 hPa 0,0 l/m 0 min 0 min 0 W/m 12,9 km/h (3 Bft) 100,00 %
18.07.2019 22:24 21,6 C 20,6 C 20,0 C 69 % 1012,2 hPa 0,0 l/m 0 min 0 min 0 W/m 9,7 km/h (2 Bft) 97,87 %
18.07.2019 22:26 21,6 C 20,0 C 20,0 C 69 % 1012,1 hPa 0,0 l/m 0 min 0 min 0 W/m 9,7 km/h (2 Bft) 97,87 %
18.07.2019 22:28 21,6 C 20,0 C 20,0 C 70 % 1012,1 hPa 0,0 l/m 0 min 0 min 0 W/m 6,4 km/h (2 Bft) 97,87 %
18.07.2019 22:30 21,5 C 20,0 C 20,0 C 70 % 1012,2 hPa 0,0 l/m 0 min 0 min 0 W/m 12,9 km/h (3 Bft) 97,87 %
18.07.2019 22:32 21,5 C 20,0 C 20,0 C 70 % 1012,2 hPa 0,0 l/m 0 min 0 min 0 W/m 9,7 km/h (2 Bft) 97,83 %
18.07.2019 22:34 21,5 C 20,0 C 20,0 C 71 % 1012,3 hPa 0,0 l/m 0 min 0 min 0 W/m 16,1 km/h (3 Bft) 97,87 %
18.07.2019 22:36 21,5 C 20,0 C 20,0 C 71 % 1012,3 hPa 0,0 l/m 0 min 0 min 0 W/m 16,1 km/h (3 Bft) 97,87 %
18.07.2019 22:38 21,4 C 20,0 C 20,0 C 72 % 1012,4 hPa 0,0 l/m 0 min 0 min 0 W/m 6,4 km/h (2 Bft) 95,74 %
18.07.2019 22:40 21,4 C 20,0 C 20,0 C 72 % 1012,4 hPa 0,0 l/m 0 min 0 min 0 W/m 16,1 km/h (3 Bft) 97,87 %
18.07.2019 22:42 21,4 C 20,0 C 20,0 C 72 % 1012,3 hPa 0,0 l/m 0 min 0 min 0 W/m 12,9 km/h (3 Bft) 97,87 %
18.07.2019 22:44 21,3 C 20,0 C 20,0 C 73 % 1012,3 hPa 0,0 l/m 0 min 0 min 0 W/m 6,4 km/h (2 Bft) 97,83 %
18.07.2019 22:46 21,3 C 20,0 C 20,0 C 73 % 1012,3 hPa 0,0 l/m 0 min 0 min 0 W/m 6,4 km/h (2 Bft) 97,87 %
18.07.2019 22:48 21,3 C 19,4 C 19,4 C 73 % 1012,3 hPa 0,0 l/m 0 min 0 min 0 W/m 6,4 km/h (2 Bft) 97,87 %
18.07.2019 22:50 21,2 C 19,4 C 19,4 C 73 % 1012,3 hPa 0,0 l/m 0 min 0 min 0 W/m 6,4 km/h (2 Bft) 97,87 %
18.07.2019 22:52 21,2 C 19,4 C 19,4 C 74 % 1012,3 hPa 0,0 l/m 0 min 0 min 0 W/m 3,2 km/h (1 Bft) 97,87 %
18.07.2019 22:54 21,2 C 19,4 C 19,4 C 74 % 1012,4 hPa 0,0 l/m 0 min 0 min 0 W/m 6,4 km/h (2 Bft) 95,74 %
18.07.2019 22:56 21,1 C 19,4 C 19,4 C 74 % 1012,4 hPa 0,0 l/m 0 min 0 min 0 W/m 6,4 km/h (2 Bft) 95,65 %
18.07.2019 22:58 21,1 C 19,4 C 19,4 C 74 % 1012,4 hPa 0,0 l/m 0 min 0 min 0 W/m 6,4 km/h (2 Bft) 95,74 %
18.07.2019 23:00 21,0 C 19,4 C 19,4 C 75 % 1012,3 hPa 0,0 l/m 0 min 0 min 0 W/m 3,2 km/h (1 Bft) 97,87 %
18.07.2019 23:02 21,0 C 18,9 C 19,4 C 75 % 1012,4 hPa 0,0 l/m 0 min 0 min 0 W/m 3,2 km/h (1 Bft) 97,87 %
18.07.2019 23:04 21,0 C 18,9 C 18,9 C 75 % 1012,3 hPa 0,0 l/m 0 min 0 min 0 W/m 3,2 km/h (1 Bft) 97,87 %
18.07.2019 23:06 20,9 C 18,9 C 18,9 C 75 % 1012,4 hPa 0,0 l/m 0 min 0 min 0 W/m 3,2 km/h (1 Bft) 97,87 %
18.07.2019 23:08 20,9 C 18,9 C 18,9 C 75 % 1012,4 hPa 0,0 l/m 0 min 0 min 0 W/m 0,0 km/h (0 Bft) 97,83 %
18.07.2019 23:10 20,9 C 18,9 C 18,9 C 75 % 1012,4 hPa 0,0 l/m 0 min 0 min 0 W/m 0,0 km/h (0 Bft) 100,00 %
18.07.2019 23:12 20,8 C 18,9 C 18,9 C 75 % 1012,5 hPa 0,0 l/m 0 min 0 min 0 W/m 0,0 km/h (0 Bft) 100,00 %
18.07.2019 23:14 20,8 C 18,9 C 18,9 C 76 % 1012,5 hPa 0,0 l/m 0 min 0 min 0 W/m 3,2 km/h (1 Bft) 100,00 %
18.07.2019 23:16 20,8 C 18,9 C 18,3 C 76 % 1012,5 hPa 0,0 l/m 0 min 0 min 0 W/m 0,0 km/h (0 Bft) 100,00 %
18.07.2019 23:18 20,8 C 18,9 C 18,3 C 76 % 1012,5 hPa 0,0 l/m 0 min 0 min 0 W/m 3,2 km/h (1 Bft) 100,00 %
18.07.2019 23:20 20,7 C 18,9 C 18,3 C 76 % 1012,5 hPa 0,0 l/m 0 min 0 min 0 W/m 3,2 km/h (1 Bft) 100,00 %
18.07.2019 23:22 20,7 C 18,9 C 18,9 C 76 % 1012,5 hPa 0,0 l/m 0 min 0 min 0 W/m 6,4 km/h (2 Bft) 100,00 %
18.07.2019 23:24 20,7 C 18,9 C 18,9 C 77 % 1012,5 hPa 0,0 l/m 0 min 0 min 0 W/m 6,4 km/h (2 Bft) 100,00 %
18.07.2019 23:26 20,6 C 18,9 C 18,9 C 77 % 1012,5 hPa 0,0 l/m 0 min 0 min 0 W/m 6,4 km/h (2 Bft) 97,87 %
18.07.2019 23:28 20,6 C 18,9 C 18,9 C 77 % 1012,5 hPa 0,0 l/m 0 min 0 min 0 W/m 3,2 km/h (1 Bft) 97,87 %
18.07.2019 23:30 20,5 C 18,9 C 18,9 C 77 % 1012,6 hPa 0,0 l/m 0 min 0 min 0 W/m 6,4 km/h (2 Bft) 97,83 %
18.07.2019 23:32 20,4 C 18,9 C 18,9 C 77 % 1012,6 hPa 0,0 l/m 0 min 0 min 0 W/m 6,4 km/h (2 Bft) 97,87 %
18.07.2019 23:34 20,4 C 18,9 C 19,4 C 77 % 1012,6 hPa 0,0 l/m 0 min 0 min 0 W/m 6,4 km/h (2 Bft) 97,87 %
18.07.2019 23:36 20,4 C 19,4 C 19,4 C 77 % 1012,6 hPa 0,0 l/m 0 min 0 min 0 W/m 6,4 km/h (2 Bft) 97,87 %
18.07.2019 23:38 20,3 C 19,4 C 19,4 C 76 % 1012,7 hPa 0,0 l/m 0 min 0 min 0 W/m 9,7 km/h (2 Bft) 97,87 %
18.07.2019 23:40 20,3 C 19,4 C 19,4 C 76 % 1012,7 hPa 0,0 l/m 0 min 0 min 0 W/m 9,7 km/h (2 Bft) 93,62 %
18.07.2019 23:42 20,3 C 19,4 C 19,4 C 76 % 1012,8 hPa 0,0 l/m 0 min 0 min 0 W/m 9,7 km/h (2 Bft) 97,83 %
18.07.2019 23:44 20,3 C 19,4 C 19,4 C 76 % 1012,6 hPa 0,0 l/m 0 min 0 min 0 W/m 6,4 km/h (2 Bft) 95,74 %
18.07.2019 23:46 20,2 C 19,4 C 19,4 C 76 % 1012,7 hPa 0,0 l/m 0 min 0 min 0 W/m 12,9 km/h (3 Bft) 97,87 %
18.07.2019 23:48 20,2 C 19,4 C 19,4 C 76 % 1012,6 hPa 0,0 l/m 0 min 0 min 0 W/m 9,7 km/h (2 Bft) 97,87 %
18.07.2019 23:50 20,2 C 19,4 C 19,4 C 75 % 1012,6 hPa 0,0 l/m 0 min 0 min 0 W/m 9,7 km/h (2 Bft) 97,87 %
18.07.2019 23:52 20,2 C 18,9 C 18,9 C 75 % 1012,6 hPa 0,0 l/m 0 min 0 min 0 W/m 12,9 km/h (3 Bft) 95,74 %
18.07.2019 23:54 20,2 C 18,9 C 18,9 C 75 % 1012,6 hPa 0,0 l/m 0 min 0 min 0 W/m 16,1 km/h (3 Bft) 95,65 %
18.07.2019 23:56 20,2 C 18,9 C 18,9 C 75 % 1012,7 hPa 0,0 l/m 0 min 0 min 0 W/m 6,4 km/h (2 Bft) 93,62 %
18.07.2019 23:58 20,2 C 18,9 C 18,9 C 75 % 1012,6 hPa 0,0 l/m 0 min 0 min 0 W/m 6,4 km/h (2 Bft) 97,87 %
_ Min-Zeit 02:12 01:20 01:36 13:44 17:20 - - - - 00:04 07:36
Minimum _ 14,6 C 12,8 C 12,2 C 48 % 1010,7 hPa - - - - 0,0 km/h (0 Bft) 89,13 %
_ Max-Zeit 13:38 12:34 12:36 06:36 00:26 00:00 12:08 14:34 13:30 14:42 00:48
Maximum _ 27,8 C 33,3 C 33,9 C 92 % 1013,4 hPa 0,0 l/m 4 min 2 min 1019 W/m 32,2 km/h
O-SO (5 Bft)
100,00 %
Durchschnitt _ 20,7 C 21,0 C 20,6 C 71 % 1011,8 hPa #0,0 l/m #6:06 h #14 min. 314 W/m 8,7 km/h (2 Bft) 97,50 %
© 2019 W. Hausmann